DLH438 EDDF-KDFW

Flight info

Callsign DLH438
Flight time N/A
Altitude 36000
Route OBOKA5G OBOKA Z28 DIBIR DCT BUDIP DCT MIMVA DCT GETNO DCT NIBOG DCT PIKIL/M082F370 DCT 57N020W 57N030W 57N040W 56N050W DCT JANJO/N0476F380 DCT 5330N06000W 51N070W 46N080W/N0463F400 DCT KC81Q DCT RBS DCT KK45I DCT FSM DCT RRNET SEEVR4
Aircraft A333/H-SDE3GHIJ2J3J5M1RVWXY/LB2D1

Departure

Time 2026-05-04 22:07
Airport Frankfurt Main Airport (EDDF)

Arrival

Time N/A
Airport Dallas Fort Worth International Airport (KDFW)
Time Latitude Longitude Altitude Speed Heading
2026-05-04 21:33 50.04642 8.56654 375 ft 0 kts 115°
2026-05-04 21:47 50.04642 8.56653 375 ft 0 kts 115°
2026-05-04 21:50 50.04642 8.56652 375 ft 1 kts 115°
2026-05-04 21:50 50.04649 8.56632 375 ft 2 kts 115°
2026-05-04 21:51 50.04655 8.56610 375 ft 2 kts 116°
2026-05-04 21:51 50.04659 8.56597 374 ft 2 kts 131°
2026-05-04 21:51 50.04670 8.56582 374 ft 2 kts 152°
2026-05-04 21:51 50.04684 8.56573 374 ft 2 kts 171°
2026-05-04 21:52 50.04699 8.56572 375 ft 2 kts 190°
2026-05-04 21:52 50.04717 8.56582 375 ft 2 kts 215°
2026-05-04 21:52 50.04725 8.56591 376 ft 2 kts 228°
2026-05-04 21:52 50.04728 8.56596 376 ft 0 kts 233°
2026-05-04 21:53 50.04711 8.56563 375 ft 7 kts 237°
2026-05-04 21:53 50.04684 8.56490 373 ft 7 kts 243°
2026-05-04 21:53 50.04665 8.56425 371 ft 4 kts 248°
2026-05-04 21:53 50.04660 8.56404 371 ft 0 kts 250°
2026-05-04 21:58 50.04660 8.56403 371 ft 0 kts 250°
2026-05-04 21:59 50.04653 8.56377 370 ft 6 kts 250°
2026-05-04 21:59 50.04630 8.56279 369 ft 11 kts 250°
2026-05-04 21:59 50.04598 8.56142 369 ft 14 kts 250°
2026-05-04 21:59 50.04558 8.55996 369 ft 14 kts 233°
2026-05-04 22:00 50.04475 8.55931 369 ft 13 kts 198°
2026-05-04 22:00 50.04386 8.55911 367 ft 13 kts 169°
2026-05-04 22:00 50.04294 8.55955 365 ft 14 kts 169°
2026-05-04 22:00 50.04196 8.55919 361 ft 15 kts 176°
2026-05-04 22:01 50.04093 8.55979 358 ft 15 kts 140°
2026-05-04 22:01 50.04091 8.56126 359 ft 13 kts 70°
2026-05-04 22:01 50.04118 8.56247 361 ft 10 kts 70°
2026-05-04 22:01 50.04142 8.56344 362 ft 9 kts 69°
2026-05-04 22:02 50.04168 8.56448 363 ft 11 kts 70°
2026-05-04 22:02 50.04199 8.56578 364 ft 13 kts 69°
2026-05-04 22:02 50.04235 8.56729 367 ft 15 kts 70°
2026-05-04 22:02 50.04272 8.56884 371 ft 15 kts 70°
2026-05-04 22:03 50.04313 8.57054 372 ft 18 kts 70°
2026-05-04 22:03 50.04358 8.57248 373 ft 20 kts 71°
2026-05-04 22:03 50.04410 8.57463 371 ft 22 kts 69°
2026-05-04 22:03 50.04464 8.57686 372 ft 21 kts 70°
2026-05-04 22:04 50.04509 8.57882 377 ft 17 kts 70°
2026-05-04 22:04 50.04548 8.58042 379 ft 14 kts 70°
2026-05-04 22:04 50.04581 8.58182 381 ft 12 kts 69°
2026-05-04 22:04 50.04610 8.58300 381 ft 10 kts 69°
2026-05-04 22:05 50.04637 8.58416 378 ft 12 kts 71°
2026-05-04 22:05 50.04637 8.58554 373 ft 15 kts 139°
2026-05-04 22:05 50.04533 8.58619 369 ft 13 kts 165°
2026-05-04 22:05 50.04478 8.58554 371 ft 0 kts 249°
2026-05-04 22:06 50.04472 8.58527 372 ft 10 kts 249°
2026-05-04 22:06 50.04393 8.58199 377 ft 62 kts 250°
2026-05-04 22:07 50.04166 8.57244 368 ft 124 kts 249°
2026-05-04 22:07 50.03802 8.55715 350 ft 176 kts 250°
2026-05-04 22:07 50.03355 8.53859 860 ft 180 kts 249°
2026-05-04 22:07 50.02914 8.52064 1503 ft 183 kts 249°
2026-05-04 22:08 50.02549 8.50144 2049 ft 193 kts 268°
2026-05-04 22:08 50.02734 8.48110 2794 ft 190 kts 280°
2026-05-04 22:08 50.02922 8.46171 3582 ft 175 kts 276°
2026-05-04 22:08 50.03007 8.44274 3746 ft 184 kts 260°
2026-05-04 22:09 50.02773 8.42324 4106 ft 181 kts 259°
2026-05-04 22:09 50.02551 8.40410 4415 ft 184 kts 259°
2026-05-04 22:09 50.02309 8.38373 4455 ft 202 kts 259°
2026-05-04 22:09 50.02040 8.36121 4468 ft 223 kts 259°
2026-05-04 22:10 50.01736 8.33578 4486 ft 251 kts 258°
2026-05-04 22:10 50.01408 8.30841 4834 ft 265 kts 258°
2026-05-04 22:10 50.01319 8.28027 5468 ft 267 kts 279°
2026-05-04 22:10 50.01976 8.25352 6059 ft 271 kts 294°
2026-05-04 22:11 50.02770 8.22678 6675 ft 273 kts 293°
2026-05-04 22:11 50.03554 8.19994 7270 ft 276 kts 293°
2026-05-04 22:11 50.04346 8.17276 7843 ft 279 kts 293°
2026-05-04 22:11 50.05146 8.14523 8435 ft 281 kts 292°
2026-05-04 22:12 50.05992 8.11859 9007 ft 285 kts 302°
2026-05-04 22:12 50.07227 8.09444 9578 ft 288 kts 307°
2026-05-04 22:12 50.08907 8.06182 10353 ft 291 kts 306°
2026-05-04 22:12 50.09737 8.04572 10730 ft 292 kts 306°
2026-05-04 22:13 50.11014 8.02092 11289 ft 295 kts 306°
2026-05-04 22:13 50.12300 7.99589 11864 ft 297 kts 306°
2026-05-04 22:13 50.13584 7.97091 12396 ft 300 kts 306°
2026-05-04 22:13 50.14888 7.94551 12943 ft 302 kts 306°
2026-05-04 22:14 50.16206 7.91980 13477 ft 304 kts 305°
2026-05-04 22:14 50.17532 7.89390 13994 ft 307 kts 305°
2026-05-04 22:14 50.18862 7.86793 14518 ft 309 kts 305°
2026-05-04 22:14 50.20192 7.84195 15012 ft 311 kts 305°
2026-05-04 22:15 50.21540 7.81559 15500 ft 313 kts 305°
2026-05-04 22:15 50.22895 7.78904 15971 ft 316 kts 304°
2026-05-04 22:15 50.24275 7.76199 16462 ft 317 kts 304°
2026-05-04 22:15 50.25814 7.73721 16875 ft 327 kts 322°
2026-05-04 22:16 50.27886 7.72110 17269 ft 336 kts 334°
2026-05-04 22:16 50.30092 7.70636 17276 ft 354 kts 333°
2026-05-04 22:16 50.32380 7.69081 17301 ft 370 kts 333°
2026-05-04 22:16 50.34800 7.67427 17341 ft 386 kts 333°
2026-05-04 22:17 50.37300 7.65714 17522 ft 397 kts 333°
2026-05-04 22:17 50.39809 7.63996 17971 ft 399 kts 333°
2026-05-04 22:17 50.42383 7.62228 18425 ft 402 kts 333°
2026-05-04 22:17 50.44938 7.60469 18919 ft 404 kts 333°
2026-05-04 22:18 50.47510 7.58697 19357 ft 406 kts 333°
2026-05-04 22:18 50.50075 7.56929 19794 ft 408 kts 333°
2026-05-04 22:18 50.52671 7.55135 20199 ft 411 kts 333°
2026-05-04 22:18 50.55281 7.53321 20581 ft 412 kts 331°
2026-05-04 22:19 50.57723 7.51027 20977 ft 410 kts 323°
2026-05-04 22:19 50.60125 7.48562 21401 ft 412 kts 323°
2026-05-04 22:19 50.62520 7.46108 21777 ft 414 kts 323°
2026-05-04 22:19 50.64929 7.43641 22164 ft 416 kts 323°
2026-05-04 22:20 50.67363 7.41141 22555 ft 418 kts 323°
2026-05-04 22:20 50.69818 7.38619 22881 ft 421 kts 323°
2026-05-04 22:20 50.72246 7.36123 23263 ft 423 kts 323°
2026-05-04 22:20 50.74559 7.33338 23623 ft 416 kts 310°
2026-05-04 22:21 50.76332 7.29729 23959 ft 413 kts 300°
2026-05-04 22:21 50.77971 7.26044 24328 ft 415 kts 300°
2026-05-04 22:21 50.79636 7.22316 24696 ft 417 kts 300°
2026-05-04 22:21 50.81311 7.18555 25080 ft 418 kts 300°
2026-05-04 22:22 50.82982 7.14806 25409 ft 421 kts 300°
2026-05-04 22:22 50.84652 7.11050 25767 ft 422 kts 300°
2026-05-04 22:22 50.86343 7.07242 26122 ft 424 kts 300°
2026-05-04 22:22 50.88030 7.03441 26476 ft 425 kts 300°
2026-05-04 22:23 50.89738 6.99584 26799 ft 428 kts 300°
2026-05-04 22:23 50.91450 6.95718 27137 ft 430 kts 300°
2026-05-04 22:23 50.93147 6.91876 27470 ft 432 kts 300°
2026-05-04 22:23 50.94872 6.87972 27788 ft 434 kts 300°
2026-05-04 22:24 50.96585 6.84083 28092 ft 436 kts 300°
2026-05-04 22:24 50.98312 6.80165 28523 ft 435 kts 300°
2026-05-04 22:24 51.00052 6.76203 28818 ft 438 kts 299°
2026-05-04 22:24 51.01779 6.72266 29097 ft 440 kts 299°
2026-05-04 22:25 51.03545 6.68234 29405 ft 442 kts 299°
2026-05-04 22:25 51.05295 6.64238 29668 ft 444 kts 299°
2026-05-04 22:25 51.07057 6.60201 29906 ft 447 kts 299°
2026-05-04 22:25 51.08811 6.56182 30248 ft 447 kts 299°
2026-05-04 22:26 51.10559 6.52165 30484 ft 449 kts 299°
2026-05-04 22:26 51.12348 6.48044 30647 ft 451 kts 299°
2026-05-04 22:26 51.14124 6.43952 30864 ft 452 kts 299°
2026-05-04 22:26 51.15894 6.39868 31044 ft 454 kts 299°
2026-05-04 22:27 51.17701 6.35684 31152 ft 457 kts 299°
2026-05-04 22:27 51.19485 6.31555 31380 ft 457 kts 298°
2026-05-04 22:27 51.21291 6.27366 31589 ft 457 kts 298°
2026-05-04 22:27 51.23089 6.23189 31699 ft 459 kts 298°
2026-05-04 22:28 51.24898 6.18976 31810 ft 461 kts 298°
2026-05-04 22:28 51.26692 6.14797 32043 ft 460 kts 298°
2026-05-04 22:28 51.28480 6.10556 32122 ft 461 kts 297°
2026-05-04 22:29 51.31953 6.02079 32406 ft 462 kts 297°
2026-05-04 22:29 51.35428 5.93573 32545 ft 464 kts 297°
2026-05-04 22:29 51.37185 5.89279 32677 ft 465 kts 298°
2026-05-04 22:30 51.39325 5.85387 32780 ft 476 kts 312°
2026-05-04 22:30 51.41827 5.81903 32892 ft 476 kts 312°
2026-05-04 22:30 51.44288 5.78425 33006 ft 476 kts 313°
2026-05-04 22:30 51.46781 5.74886 33193 ft 474 kts 312°
2026-05-04 22:31 51.49215 5.71423 33334 ft 473 kts 312°
2026-05-04 22:31 51.51669 5.67926 33471 ft 473 kts 312°
2026-05-04 22:31 51.54127 5.64419 33517 ft 474 kts 312°
2026-05-04 22:31 51.56600 5.60886 33656 ft 473 kts 312°
2026-05-04 22:32 51.59044 5.57389 33880 ft 470 kts 312°
2026-05-04 22:32 51.61450 5.53940 34004 ft 469 kts 312°
2026-05-04 22:32 51.63881 5.50451 34119 ft 468 kts 312°
2026-05-04 22:32 51.66305 5.46966 34274 ft 467 kts 313°
2026-05-04 22:33 51.68738 5.43464 34416 ft 466 kts 312°
2026-05-04 22:33 51.73540 5.36532 34597 ft 465 kts 313°
2026-05-04 22:33 51.75945 5.33053 34702 ft 464 kts 312°
2026-05-04 22:34 51.78328 5.29605 34888 ft 462 kts 311°
2026-05-04 22:34 51.83115 5.22657 34993 ft 463 kts 311°
2026-05-04 22:35 51.87878 5.15719 35125 ft 462 kts 312°
2026-05-04 22:35 51.92641 5.08765 35242 ft 462 kts 312°
2026-05-04 22:36 51.97407 5.01786 35335 ft 462 kts 312°
2026-05-04 22:36 52.02171 4.94787 35381 ft 463 kts 312°
2026-05-04 22:37 52.06922 4.87785 35439 ft 463 kts 312°
2026-05-04 22:37 52.11692 4.80736 35484 ft 463 kts 312°
2026-05-04 22:38 52.16464 4.73661 35489 ft 464 kts 312°
2026-05-04 22:38 52.21228 4.66578 35519 ft 464 kts 312°
2026-05-04 22:39 52.25990 4.59477 35498 ft 466 kts 312°
2026-05-04 22:39 52.30733 4.52381 35519 ft 467 kts 312°
2026-05-04 22:40 52.35504 4.45222 35514 ft 468 kts 312°
2026-05-04 22:40 52.40282 4.38030 35685 ft 469 kts 313°
2026-05-04 22:41 52.45049 4.30836 35742 ft 468 kts 312°
2026-05-04 22:41 52.49825 4.23601 35774 ft 468 kts 312°
2026-05-04 22:42 52.54604 4.16340 35795 ft 468 kts 312°
2026-05-04 22:42 52.59358 4.09097 35813 ft 469 kts 312°
2026-05-04 22:43 52.64152 4.01769 35845 ft 469 kts 312°
2026-05-04 22:43 52.68889 3.94503 35849 ft 470 kts 313°
2026-05-04 22:44 52.73655 3.87174 35919 ft 469 kts 313°
2026-05-04 22:44 52.78421 3.79817 35944 ft 469 kts 313°
2026-05-04 22:45 52.83167 3.72475 35953 ft 470 kts 313°
2026-05-04 22:45 52.90258 3.61456 35997 ft 469 kts 313°
2026-05-04 22:46 52.95027 3.54013 35986 ft 470 kts 313°
2026-05-04 22:46 52.99736 3.46643 35962 ft 470 kts 314°
2026-05-04 22:47 53.04478 3.39199 35984 ft 469 kts 314°
2026-05-04 22:47 53.09029 3.31518 35975 ft 462 kts 301°
2026-05-04 22:48 53.10464 3.26912 36014 ft 455 kts 287°
2026-05-04 22:48 53.11333 3.21882 36024 ft 454 kts 283°
2026-05-04 22:48 53.12922 3.11730 35996 ft 455 kts 282°
2026-05-04 22:49 53.13699 3.06608 35699 ft 456 kts 282°
2026-05-04 22:49 53.14465 3.01532 35918 ft 449 kts 282°
2026-05-04 22:49 53.15216 2.96532 36031 ft 449 kts 282°
2026-05-04 22:49 53.15970 2.91499 35953 ft 452 kts 282°
2026-05-04 22:50 53.17485 2.81335 36001 ft 454 kts 283°
2026-05-04 22:50 53.18992 2.71152 36001 ft 456 kts 283°
2026-05-04 22:51 53.20505 2.60866 36000 ft 458 kts 283°
2026-05-04 22:51 53.22002 2.50624 35999 ft 460 kts 283°
2026-05-04 22:52 53.23508 2.40251 36003 ft 461 kts 283°
2026-05-04 22:52 53.24987 2.29988 36011 ft 462 kts 282°
2026-05-04 22:53 53.26473 2.19621 36013 ft 463 kts 282°
2026-05-04 22:53 53.27949 2.09243 36012 ft 463 kts 282°
2026-05-04 22:54 53.29429 1.98766 36012 ft 464 kts 282°
2026-05-04 22:54 53.30901 1.88275 36013 ft 465 kts 283°
2026-05-04 22:55 53.32362 1.77791 36022 ft 465 kts 283°
2026-05-04 22:55 53.33814 1.67299 36018 ft 466 kts 283°
2026-05-04 22:56 53.35259 1.56785 36024 ft 466 kts 283°
2026-05-04 22:56 53.36703 1.46202 36029 ft 464 kts 283°
2026-05-04 22:57 53.38123 1.35716 36027 ft 463 kts 283°
2026-05-04 22:57 53.39538 1.25192 36029 ft 464 kts 282°
2026-05-04 22:58 53.40937 1.14719 36027 ft 464 kts 282°
2026-05-04 22:58 53.42338 1.04150 36029 ft 464 kts 282°
2026-05-04 22:59 53.43718 0.93654 36029 ft 465 kts 283°
2026-05-04 22:59 53.45109 0.83011 36035 ft 466 kts 283°
2026-05-04 23:00 53.46476 0.72465 36039 ft 468 kts 283°
2026-05-04 23:00 53.47856 0.61742 36031 ft 470 kts 283°
2026-05-04 23:01 53.49223 0.51041 36033 ft 471 kts 283°
2026-05-04 23:01 53.50583 0.40313 36035 ft 473 kts 283°
2026-05-04 23:02 53.51943 0.29502 36037 ft 474 kts 283°
2026-05-04 23:02 53.53297 0.18641 36042 ft 476 kts 283°
2026-05-04 23:03 53.54635 0.07823 36037 ft 478 kts 283°
2026-05-04 23:03 53.55979 -0.03113 36048 ft 479 kts 283°
2026-05-04 23:04 53.57314 -0.14069 36050 ft 480 kts 283°
2026-05-04 23:04 53.58637 -0.25022 36049 ft 481 kts 283°
2026-05-04 23:05 53.59952 -0.36002 36049 ft 482 kts 283°
2026-05-04 23:05 53.61269 -0.47073 36043 ft 483 kts 283°
2026-05-04 23:06 53.62572 -0.58125 36046 ft 484 kts 283°
2026-05-04 23:06 53.63865 -0.69213 36056 ft 482 kts 283°
2026-05-04 23:07 53.65140 -0.80210 36059 ft 482 kts 283°
2026-05-04 23:07 53.66414 -0.91312 36056 ft 482 kts 283°
2026-05-04 23:08 53.67672 -1.02339 36043 ft 484 kts 283°
2026-05-04 23:08 53.68932 -1.13507 36037 ft 484 kts 283°
2026-05-04 23:09 53.70167 -1.24552 36046 ft 484 kts 283°
2026-05-04 23:09 53.71406 -1.35721 36048 ft 484 kts 283°
2026-05-04 23:10 53.72625 -1.46818 36055 ft 484 kts 283°
2026-05-04 23:10 53.73846 -1.58020 36047 ft 486 kts 283°
2026-05-04 23:11 53.75057 -1.69249 36047 ft 486 kts 283°
2026-05-04 23:11 53.76253 -1.80438 36038 ft 487 kts 283°
2026-05-04 23:12 53.77436 -1.91604 36054 ft 487 kts 283°
2026-05-04 23:12 53.78627 -2.02936 36029 ft 488 kts 283°
2026-05-04 23:13 53.79792 -2.14161 36032 ft 488 kts 283°
2026-05-04 23:13 53.80952 -2.25420 36018 ft 488 kts 283°
2026-05-04 23:14 53.82101 -2.36700 36040 ft 489 kts 283°
2026-05-04 23:14 53.83250 -2.48063 36031 ft 488 kts 283°
2026-05-04 23:15 53.84372 -2.59295 36045 ft 488 kts 283°
2026-05-04 23:15 53.85498 -2.70680 36043 ft 489 kts 282°
2026-05-04 23:16 53.86601 -2.81923 36056 ft 488 kts 282°
2026-05-04 23:16 53.87701 -2.93268 36049 ft 489 kts 282°
2026-05-04 23:17 53.88787 -3.04587 36056 ft 488 kts 282°
2026-05-04 23:17 53.89867 -3.15953 36061 ft 488 kts 282°
2026-05-04 23:18 53.90934 -3.27301 36052 ft 489 kts 282°
2026-05-04 23:18 53.91986 -3.38605 36038 ft 489 kts 282°
2026-05-04 23:19 53.93042 -3.50036 36063 ft 489 kts 284°
2026-05-04 23:19 53.93969 -3.55427 36047 ft 481 kts 295°
2026-05-04 23:19 53.95136 -3.60779 36078 ft 483 kts 293°
2026-05-04 23:20 53.97283 -3.71596 36047 ft 484 kts 291°
2026-05-04 23:20 53.99378 -3.82404 36044 ft 483 kts 291°
2026-05-04 23:21 54.01459 -3.93220 36052 ft 483 kts 291°
2026-05-04 23:21 54.03524 -4.04007 36045 ft 484 kts 291°
2026-05-04 23:22 54.05592 -4.14877 36046 ft 484 kts 291°
2026-05-04 23:22 54.07643 -4.25721 36049 ft 482 kts 291°
2026-05-04 23:23 54.09682 -4.36563 36054 ft 482 kts 291°
2026-05-04 23:23 54.11706 -4.47391 36059 ft 482 kts 291°
2026-05-04 23:24 54.13730 -4.58278 36062 ft 481 kts 291°
2026-05-04 23:24 54.15724 -4.69068 36063 ft 480 kts 290°
2026-05-04 23:25 54.17719 -4.79914 36073 ft 480 kts 290°
2026-05-04 23:25 54.19696 -4.90746 36069 ft 481 kts 290°
2026-05-04 23:26 54.21669 -5.01607 36067 ft 481 kts 290°
2026-05-04 23:26 54.23635 -5.12502 36070 ft 481 kts 290°
2026-05-04 23:27 54.25586 -5.23367 36071 ft 479 kts 290°
2026-05-04 23:27 54.27511 -5.34163 36071 ft 477 kts 290°
2026-05-04 23:28 54.29440 -5.45038 36071 ft 478 kts 290°
2026-05-04 23:28 54.31353 -5.55892 36071 ft 478 kts 290°
2026-05-04 23:29 54.33257 -5.66756 36071 ft 479 kts 289°
2026-05-04 23:29 54.35150 -5.77628 36071 ft 479 kts 289°
2026-05-04 23:30 54.37040 -5.88547 36066 ft 477 kts 289°
2026-05-04 23:30 54.38902 -5.99373 36067 ft 476 kts 289°
2026-05-04 23:31 54.40763 -6.10264 36065 ft 477 kts 290°
2026-05-04 23:31 54.42609 -6.21120 36065 ft 475 kts 289°
2026-05-04 23:32 54.44444 -6.31984 36075 ft 476 kts 290°
2026-05-04 23:32 54.46265 -6.42830 36072 ft 475 kts 289°
2026-05-04 23:33 54.48085 -6.53740 36065 ft 475 kts 289°
2026-05-04 23:33 54.49882 -6.64589 36067 ft 475 kts 289°
2026-05-04 23:34 54.51687 -6.75548 36063 ft 475 kts 289°
2026-05-04 23:34 54.53471 -6.86449 36068 ft 476 kts 289°
2026-05-04 23:35 54.55237 -6.97311 36057 ft 473 kts 289°
2026-05-04 23:35 54.56991 -7.08167 36057 ft 472 kts 289°
2026-05-04 23:36 54.58743 -7.19077 36061 ft 473 kts 288°
2026-05-04 23:36 54.60484 -7.29991 36058 ft 473 kts 288°
2026-05-04 23:37 54.62212 -7.40907 36058 ft 473 kts 288°
2026-05-04 23:37 54.63936 -7.51851 36054 ft 472 kts 288°
2026-05-04 23:38 54.65634 -7.62706 36063 ft 472 kts 288°
2026-05-04 23:38 54.67334 -7.73651 36062 ft 472 kts 288°
2026-05-04 23:39 54.69022 -7.84588 36058 ft 472 kts 287°
2026-05-04 23:39 54.70696 -7.95501 36053 ft 472 kts 287°
2026-05-04 23:40 54.72353 -8.06384 36049 ft 471 kts 287°
2026-05-04 23:40 54.74002 -8.17288 36068 ft 470 kts 287°
2026-05-04 23:41 54.75636 -8.28159 36067 ft 469 kts 287°
2026-05-04 23:41 54.77256 -8.39015 36067 ft 469 kts 287°
2026-05-04 23:42 54.78868 -8.49892 36080 ft 469 kts 287°
2026-05-04 23:42 54.80472 -8.60787 36092 ft 467 kts 287°
2026-05-04 23:43 54.82062 -8.71665 36096 ft 468 kts 286°
2026-05-04 23:43 54.83641 -8.82534 36094 ft 468 kts 286°
2026-05-04 23:44 54.85218 -8.93476 36105 ft 467 kts 286°
2026-05-04 23:44 54.86771 -9.04324 36111 ft 468 kts 286°
2026-05-04 23:45 54.88328 -9.15272 36113 ft 466 kts 286°
2026-05-04 23:45 54.89855 -9.26089 36111 ft 465 kts 286°
2026-05-04 23:46 54.91378 -9.36955 36107 ft 465 kts 286°
2026-05-04 23:46 54.92896 -9.47855 36110 ft 465 kts 286°
2026-05-04 23:47 54.94405 -9.58780 36108 ft 465 kts 286°
2026-05-04 23:47 54.95892 -9.69623 36108 ft 465 kts 285°
2026-05-04 23:48 54.97387 -9.80590 36105 ft 465 kts 285°
2026-05-04 23:48 54.98858 -9.91473 36105 ft 464 kts 285°
2026-05-04 23:49 55.00389 -10.02309 36100 ft 461 kts 291°
2026-05-04 23:49 55.02811 -10.12552 36109 ft 461 kts 293°
2026-05-04 23:50 55.05162 -10.22972 36112 ft 461 kts 293°
2026-05-04 23:50 55.07468 -10.33305 36107 ft 460 kts 293°
2026-05-04 23:51 55.09756 -10.43620 36102 ft 460 kts 293°
2026-05-04 23:51 55.12054 -10.54032 36107 ft 459 kts 293°
2026-05-04 23:52 55.14314 -10.64324 36105 ft 458 kts 293°
2026-05-04 23:52 55.16581 -10.74701 36107 ft 459 kts 292°
2026-05-04 23:53 55.18836 -10.85074 36105 ft 457 kts 292°
2026-05-04 23:53 55.21079 -10.95443 36105 ft 456 kts 292°
2026-05-04 23:54 55.23315 -11.05830 36103 ft 455 kts 292°
2026-05-04 23:54 55.25527 -11.16162 36097 ft 456 kts 292°
2026-05-04 23:55 55.27737 -11.26533 36098 ft 456 kts 291°
2026-05-04 23:56 55.31029 -11.42086 36097 ft 455 kts 291°
2026-05-04 23:56 55.33211 -11.52460 36097 ft 455 kts 291°
2026-05-04 23:57 55.35389 -11.62868 36104 ft 454 kts 291°
2026-05-04 23:57 55.37556 -11.73277 36105 ft 454 kts 291°
2026-05-04 23:58 55.39699 -11.83622 36100 ft 454 kts 290°
2026-05-04 23:58 55.41846 -11.94046 36101 ft 454 kts 290°
2026-05-04 23:59 55.43972 -12.04418 36101 ft 453 kts 290°
2026-05-04 23:59 55.46096 -12.14832 36103 ft 452 kts 290°
2026-05-05 00:00 55.48194 -12.25176 36101 ft 452 kts 290°
2026-05-05 00:00 55.50295 -12.35590 36107 ft 452 kts 290°
2026-05-05 00:01 55.52389 -12.46021 36106 ft 451 kts 290°
2026-05-05 00:01 55.54453 -12.56359 36109 ft 451 kts 290°
2026-05-05 00:02 55.56520 -12.66768 36109 ft 449 kts 289°
2026-05-05 00:02 55.58577 -12.77179 36110 ft 450 kts 289°
2026-05-05 00:03 55.60616 -12.87558 36118 ft 451 kts 289°
2026-05-05 00:03 55.62662 -12.98025 36116 ft 450 kts 289°
2026-05-05 00:04 55.64679 -13.08403 36118 ft 450 kts 289°
2026-05-05 00:04 55.66692 -13.18812 36114 ft 450 kts 289°
2026-05-05 00:05 55.68711 -13.29315 36116 ft 449 kts 289°
2026-05-05 00:05 55.70692 -13.39671 36115 ft 448 kts 289°
2026-05-05 00:06 55.72682 -13.50133 36115 ft 448 kts 288°
2026-05-05 00:06 55.74658 -13.60577 36113 ft 447 kts 288°
2026-05-05 00:07 55.76608 -13.70944 36117 ft 448 kts 288°
2026-05-05 00:07 55.78578 -13.81473 36113 ft 448 kts 288°
2026-05-05 00:08 55.80529 -13.91952 36113 ft 448 kts 287°
2026-05-05 00:08 55.82453 -14.02355 36116 ft 448 kts 288°
2026-05-05 00:09 55.84391 -14.12887 36111 ft 448 kts 287°
2026-05-05 00:09 55.86307 -14.23359 36116 ft 447 kts 287°
2026-05-05 00:10 55.88213 -14.33834 36119 ft 447 kts 287°
2026-05-05 00:10 55.90116 -14.44356 36118 ft 447 kts 287°
2026-05-05 00:11 55.92005 -14.54854 36120 ft 446 kts 287°
2026-05-05 00:11 55.93890 -14.65400 36124 ft 447 kts 287°
2026-05-05 00:12 55.95762 -14.75923 36125 ft 447 kts 287°
2026-05-05 00:12 55.97629 -14.86482 36125 ft 447 kts 286°
2026-05-05 00:13 55.99481 -14.97019 36132 ft 447 kts 286°
2026-05-05 00:13 56.01666 -15.07426 36141 ft 449 kts 291°
2026-05-05 00:14 56.03995 -15.17756 36126 ft 449 kts 291°
2026-05-05 00:14 56.06303 -15.28084 36127 ft 448 kts 291°
2026-05-05 00:15 56.08591 -15.38374 36119 ft 448 kts 291°
2026-05-05 00:15 56.10886 -15.48748 36125 ft 448 kts 291°
2026-05-05 00:16 56.13160 -15.59084 36128 ft 449 kts 291°
2026-05-05 00:16 56.15429 -15.69443 36126 ft 449 kts 290°
2026-05-05 00:17 56.17700 -15.79869 36129 ft 449 kts 290°
2026-05-05 00:17 56.19941 -15.90205 36129 ft 449 kts 290°
2026-05-05 00:18 56.22202 -16.00684 36132 ft 449 kts 290°
2026-05-05 00:18 56.24425 -16.11043 36128 ft 448 kts 290°
2026-05-05 00:19 56.26652 -16.21471 36133 ft 449 kts 290°
2026-05-05 00:19 56.28888 -16.31999 36138 ft 450 kts 290°
2026-05-05 00:20 56.31096 -16.42445 36128 ft 450 kts 290°
2026-05-05 00:20 56.33299 -16.52924 36126 ft 450 kts 290°
2026-05-05 00:21 56.35497 -16.63431 36133 ft 450 kts 290°
2026-05-05 00:21 56.37698 -16.74008 36142 ft 451 kts 289°
2026-05-05 00:22 56.39872 -16.84509 36145 ft 450 kts 289°
2026-05-05 00:22 56.42054 -16.95107 36140 ft 450 kts 289°
2026-05-05 00:23 56.44218 -17.05674 36142 ft 450 kts 289°
2026-05-05 00:23 56.46381 -17.16289 36220 ft 450 kts 289°
2026-05-05 00:24 56.48525 -17.26871 36276 ft 450 kts 289°
2026-05-05 00:24 56.50648 -17.37402 36304 ft 450 kts 289°
2026-05-05 00:25 56.52787 -17.48072 36349 ft 451 kts 289°
2026-05-05 00:25 56.54906 -17.58695 36402 ft 450 kts 289°
2026-05-05 00:26 56.57016 -17.69335 36446 ft 450 kts 289°
2026-05-05 00:26 56.59104 -17.79918 36496 ft 450 kts 289°
2026-05-05 00:27 56.61196 -17.90582 36552 ft 449 kts 289°
2026-05-05 00:27 56.63274 -18.01228 36571 ft 450 kts 289°
2026-05-05 00:28 56.65352 -18.11937 36613 ft 450 kts 289°
2026-05-05 00:28 56.67409 -18.22595 36646 ft 450 kts 289°
2026-05-05 00:29 56.69468 -18.33325 36671 ft 450 kts 289°
2026-05-05 00:29 56.71513 -18.44036 36707 ft 450 kts 289°
2026-05-05 00:30 56.73548 -18.54760 36704 ft 450 kts 289°
2026-05-05 00:30 56.75576 -18.65504 36732 ft 450 kts 288°
2026-05-05 00:31 56.77594 -18.76259 36734 ft 450 kts 288°
2026-05-05 00:31 56.79608 -18.87053 36747 ft 450 kts 288°
2026-05-05 00:32 56.81611 -18.97840 36752 ft 451 kts 289°
2026-05-05 00:32 56.83611 -19.08683 36762 ft 451 kts 289°
2026-05-05 00:33 56.85589 -19.19463 36768 ft 451 kts 288°
2026-05-05 00:33 56.87568 -19.30316 36790 ft 451 kts 288°
2026-05-05 00:34 56.89531 -19.41148 36821 ft 451 kts 288°
2026-05-05 00:34 56.91472 -19.51914 36818 ft 451 kts 288°
2026-05-05 00:35 56.93422 -19.62798 36814 ft 452 kts 289°
2026-05-05 00:35 56.95364 -19.73697 36828 ft 451 kts 288°
2026-05-05 00:36 56.97290 -19.84571 36849 ft 451 kts 288°
2026-05-05 00:36 56.99225 -19.95561 36868 ft 451 kts 288°
2026-05-05 00:37 57.00269 -20.06788 36882 ft 451 kts 275°
2026-05-05 00:37 57.00718 -20.18271 36884 ft 451 kts 275°
2026-05-05 00:38 57.01151 -20.29666 36874 ft 451 kts 275°
2026-05-05 00:38 57.01575 -20.41101 36874 ft 452 kts 275°
2026-05-05 00:39 57.01991 -20.52586 36889 ft 451 kts 275°
2026-05-05 00:39 57.02395 -20.64036 36896 ft 452 kts 275°
2026-05-05 00:40 57.02788 -20.75474 36892 ft 452 kts 274°
2026-05-05 00:40 57.03171 -20.86911 36886 ft 452 kts 274°
2026-05-05 00:41 57.03544 -20.98399 36898 ft 452 kts 274°
2026-05-05 00:41 57.03907 -21.09882 36918 ft 452 kts 274°
2026-05-05 00:42 57.04258 -21.21349 36930 ft 452 kts 274°
2026-05-05 00:42 57.04599 -21.32797 36950 ft 452 kts 274°
2026-05-05 00:43 57.04930 -21.44253 36963 ft 452 kts 274°
2026-05-05 00:43 57.05251 -21.55769 37005 ft 451 kts 274°
2026-05-05 00:44 57.05559 -21.67193 37027 ft 450 kts 273°
2026-05-05 00:44 57.05858 -21.78635 37028 ft 450 kts 273°
2026-05-05 00:45 57.06144 -21.90020 37029 ft 451 kts 273°
2026-05-05 00:45 57.06422 -22.01506 37026 ft 451 kts 273°
2026-05-05 00:46 57.06691 -22.12991 37016 ft 451 kts 273°
2026-05-05 00:46 57.06947 -22.24406 37002 ft 452 kts 273°
2026-05-05 00:47 57.07195 -22.35954 37022 ft 451 kts 273°
2026-05-05 00:47 57.07431 -22.47422 37051 ft 451 kts 273°
2026-05-05 00:48 57.07655 -22.58813 37042 ft 451 kts 273°
2026-05-05 00:48 57.07870 -22.70292 37027 ft 451 kts 272°
2026-05-05 00:49 57.08076 -22.81802 37019 ft 452 kts 272°
2026-05-05 00:49 57.08270 -22.93267 37019 ft 452 kts 272°
2026-05-05 00:50 57.08455 -23.04823 37019 ft 453 kts 272°
2026-05-05 00:50 57.08629 -23.16397 37024 ft 453 kts 272°
2026-05-05 00:51 57.08792 -23.27893 37054 ft 452 kts 272°
2026-05-05 00:51 57.08944 -23.39406 37077 ft 452 kts 272°
2026-05-05 00:52 57.09086 -23.50892 37082 ft 452 kts 272°
2026-05-05 00:52 57.09218 -23.62417 37076 ft 452 kts 272°
2026-05-05 00:53 57.09338 -23.73874 37074 ft 453 kts 271°
2026-05-05 00:53 57.09449 -23.85430 37075 ft 454 kts 271°
2026-05-05 00:54 57.09549 -23.96998 37081 ft 454 kts 271°
2026-05-05 00:54 57.09638 -24.08490 37110 ft 453 kts 271°
2026-05-05 00:55 57.09716 -24.20010 37102 ft 454 kts 271°
2026-05-05 00:55 57.09785 -24.31609 37093 ft 454 kts 271°
2026-05-05 00:56 57.09843 -24.43191 37082 ft 455 kts 271°
2026-05-05 00:56 57.09890 -24.54775 37074 ft 455 kts 271°
2026-05-05 00:57 57.09926 -24.66364 37075 ft 455 kts 270°
2026-05-05 00:57 57.09951 -24.77905 37074 ft 456 kts 271°
2026-05-05 00:58 57.09967 -24.89555 37070 ft 457 kts 270°
2026-05-05 00:58 57.09971 -25.01176 37070 ft 457 kts 270°
2026-05-05 00:59 57.09965 -25.12832 37078 ft 457 kts 270°
2026-05-05 00:59 57.09948 -25.24441 37075 ft 457 kts 270°
2026-05-05 01:00 57.09919 -25.36119 37105 ft 457 kts 270°
2026-05-05 01:00 57.09880 -25.47743 37111 ft 457 kts 270°
2026-05-05 01:01 57.09831 -25.59374 37110 ft 457 kts 270°
2026-05-05 01:01 57.09770 -25.70994 37101 ft 458 kts 269°
2026-05-05 01:02 57.09699 -25.82661 37095 ft 459 kts 269°
2026-05-05 01:02 57.09616 -25.94379 37086 ft 459 kts 269°
2026-05-05 01:03 57.09523 -26.06059 37085 ft 460 kts 269°
2026-05-05 01:03 57.09419 -26.17786 37100 ft 460 kts 269°
2026-05-05 01:04 57.09304 -26.29470 37105 ft 461 kts 269°
2026-05-05 01:04 57.09110 -26.47019 37145 ft 460 kts 269°
2026-05-05 01:05 57.08967 -26.58791 37146 ft 461 kts 269°
2026-05-05 01:05 57.08814 -26.70481 37139 ft 461 kts 269°
2026-05-05 01:06 57.08649 -26.82216 37115 ft 462 kts 269°
2026-05-05 01:06 57.08472 -26.94005 37099 ft 462 kts 269°
2026-05-05 01:07 57.08286 -27.05697 37090 ft 462 kts 269°
2026-05-05 01:07 57.08087 -27.17484 37096 ft 463 kts 269°
2026-05-05 01:08 57.07878 -27.29283 37109 ft 463 kts 269°
2026-05-05 01:08 57.07657 -27.41056 37144 ft 462 kts 269°
2026-05-05 01:09 57.07428 -27.52724 37161 ft 462 kts 269°
2026-05-05 01:09 57.07185 -27.64496 37180 ft 462 kts 269°
2026-05-05 01:10 57.06932 -27.76220 37198 ft 462 kts 268°
2026-05-05 01:10 57.06667 -27.87997 37210 ft 462 kts 268°
2026-05-05 01:11 57.06393 -27.99698 37214 ft 462 kts 268°
2026-05-05 01:11 57.06107 -28.11441 37225 ft 462 kts 268°
2026-05-05 01:12 57.05809 -28.23242 37252 ft 462 kts 268°
2026-05-05 01:12 57.05502 -28.34959 37269 ft 459 kts 268°
2026-05-05 01:13 57.05189 -28.46529 37275 ft 458 kts 268°
2026-05-05 01:13 57.04858 -28.58216 37268 ft 461 kts 268°
2026-05-05 01:14 57.04519 -28.69901 37285 ft 461 kts 267°
2026-05-05 01:14 57.04165 -28.81692 37287 ft 463 kts 267°
2026-05-05 01:15 57.03804 -28.93397 37279 ft 464 kts 267°
2026-05-05 01:15 57.03427 -29.05210 37259 ft 465 kts 267°
2026-05-05 01:16 57.03040 -29.17000 37266 ft 465 kts 267°
2026-05-05 01:16 57.02643 -29.28774 37279 ft 465 kts 267°
2026-05-05 01:17 57.02235 -29.40543 37289 ft 464 kts 267°
2026-05-05 01:17 57.01815 -29.52311 37285 ft 465 kts 267°
2026-05-05 01:18 57.01384 -29.64101 37283 ft 465 kts 267°
2026-05-05 01:18 57.00942 -29.75849 37292 ft 466 kts 266°
2026-05-05 01:19 57.00487 -29.87685 37277 ft 465 kts 266°
2026-05-05 01:19 57.00024 -29.99441 37268 ft 465 kts 266°
2026-05-05 01:20 57.00106 -30.05308 37267 ft 463 kts 277°
2026-05-05 01:20 57.00413 -30.11148 37304 ft 463 kts 275°
2026-05-05 01:20 57.00892 -30.22900 37281 ft 466 kts 275°
2026-05-05 01:21 57.01340 -30.34730 37288 ft 466 kts 274°
2026-05-05 01:21 57.01775 -30.46563 37287 ft 467 kts 275°
2026-05-05 01:22 57.02200 -30.58456 37281 ft 466 kts 275°
2026-05-05 01:22 57.02610 -30.70235 37277 ft 466 kts 274°
2026-05-05 01:23 57.03009 -30.82013 37272 ft 466 kts 274°
2026-05-05 01:23 57.03207 -30.87977 37414 ft 466 kts 274°
2026-05-05 01:23 57.03399 -30.93865 37274 ft 468 kts 274°
2026-05-05 01:24 57.03778 -31.05654 37297 ft 463 kts 274°
2026-05-05 01:24 57.04139 -31.17392 37286 ft 464 kts 274°
2026-05-05 01:25 57.04492 -31.29157 37295 ft 465 kts 274°
2026-05-05 01:25 57.04836 -31.41005 37282 ft 466 kts 274°
2026-05-05 01:26 57.05173 -31.52956 37294 ft 467 kts 274°
2026-05-05 01:26 57.05497 -31.64839 37298 ft 467 kts 274°
2026-05-05 01:27 57.05808 -31.76655 37296 ft 466 kts 273°
2026-05-05 01:27 57.06108 -31.88563 37311 ft 466 kts 273°
2026-05-05 01:28 57.06397 -32.00382 37297 ft 466 kts 273°
2026-05-05 01:28 57.06675 -32.12265 37285 ft 466 kts 273°
2026-05-05 01:29 57.06940 -32.24080 37319 ft 466 kts 273°
2026-05-05 01:29 57.07195 -32.35957 37314 ft 467 kts 273°
2026-05-05 01:30 57.07441 -32.47861 37305 ft 467 kts 273°
2026-05-05 01:30 57.07673 -32.59719 37301 ft 468 kts 273°
2026-05-05 01:31 57.07895 -32.71625 37324 ft 468 kts 272°
2026-05-05 01:31 57.08107 -32.83535 37322 ft 467 kts 272°
2026-05-05 01:32 57.08305 -32.95350 37306 ft 467 kts 272°
2026-05-05 01:32 57.08493 -33.07278 37305 ft 468 kts 272°
2026-05-05 01:33 57.08671 -33.19199 37317 ft 467 kts 272°
2026-05-05 01:33 57.08836 -33.31088 37326 ft 467 kts 272°
2026-05-05 01:34 57.08989 -33.42911 37313 ft 467 kts 272°
2026-05-05 01:34 57.09133 -33.54903 37309 ft 468 kts 273°
2026-05-05 01:35 57.09265 -33.66772 37313 ft 468 kts 272°
2026-05-05 01:35 57.09386 -33.78680 37316 ft 468 kts 272°
2026-05-05 01:36 57.09495 -33.90593 37311 ft 467 kts 272°
2026-05-05 01:36 57.09593 -34.02439 37307 ft 467 kts 272°
2026-05-05 01:37 57.09680 -34.14306 37310 ft 465 kts 272°
2026-05-05 01:37 57.09755 -34.26172 37316 ft 466 kts 272°
2026-05-05 01:38 57.09819 -34.38002 37303 ft 467 kts 272°
2026-05-05 01:38 57.09872 -34.49939 37311 ft 467 kts 272°
2026-05-05 01:39 57.09914 -34.61787 37306 ft 466 kts 272°
2026-05-05 01:39 57.09944 -34.73621 37283 ft 466 kts 271°
2026-05-05 01:40 57.09964 -34.85540 37284 ft 465 kts 271°
2026-05-05 01:40 57.09972 -34.97325 37300 ft 465 kts 271°
2026-05-05 01:41 57.09969 -35.09193 37305 ft 465 kts 271°
2026-05-05 01:41 57.09955 -35.21085 37293 ft 464 kts 271°
2026-05-05 01:42 57.09929 -35.32894 37289 ft 464 kts 271°
2026-05-05 01:42 57.09892 -35.44757 37294 ft 464 kts 271°
2026-05-05 01:43 57.09844 -35.56519 37305 ft 464 kts 271°
2026-05-05 01:43 57.09786 -35.68352 37292 ft 464 kts 271°
2026-05-05 01:44 57.09752 -35.74306 37129 ft 464 kts 271°
2026-05-05 01:44 57.09716 -35.80193 37287 ft 461 kts 270°
2026-05-05 01:44 57.09635 -35.91960 37279 ft 465 kts 270°
2026-05-05 01:45 57.09542 -36.03866 37446 ft 466 kts 270°
2026-05-05 01:45 57.09491 -36.09876 37148 ft 470 kts 270°
2026-05-05 01:45 57.09438 -36.15811 37224 ft 465 kts 270°
2026-05-05 01:46 57.09383 -36.21692 37350 ft 464 kts 270°
2026-05-05 01:46 57.09323 -36.27630 37243 ft 466 kts 270°
2026-05-05 01:46 57.09198 -36.39466 37280 ft 465 kts 270°
2026-05-05 01:47 57.09061 -36.51271 37281 ft 464 kts 270°
2026-05-05 01:47 57.08913 -36.63070 37279 ft 464 kts 270°
2026-05-05 01:48 57.08755 -36.74885 37282 ft 464 kts 269°
2026-05-05 01:48 57.08584 -36.86686 37274 ft 464 kts 270°
2026-05-05 01:49 57.08405 -36.98431 37274 ft 463 kts 269°
2026-05-05 01:49 57.08213 -37.10227 37276 ft 461 kts 270°
2026-05-05 01:50 57.08011 -37.21933 37271 ft 462 kts 269°
2026-05-05 01:50 57.07796 -37.33721 37259 ft 463 kts 269°
2026-05-05 01:51 57.07571 -37.45514 37265 ft 463 kts 269°
2026-05-05 01:51 57.07336 -37.57301 37043 ft 463 kts 270°
2026-05-05 01:52 57.07216 -37.63126 37429 ft 455 kts 270°
2026-05-05 01:52 57.07091 -37.68954 37129 ft 461 kts 269°
2026-05-05 01:52 57.06963 -37.74846 37423 ft 458 kts 269°
2026-05-05 01:52 57.06835 -37.80625 37330 ft 463 kts 269°
2026-05-05 01:53 57.06700 -37.86591 37205 ft 464 kts 269°
2026-05-05 01:53 57.06568 -37.92403 37301 ft 460 kts 269°
2026-05-05 01:53 57.06288 -38.04151 37252 ft 460 kts 269°
2026-05-05 01:54 57.06000 -38.15832 37254 ft 458 kts 269°
2026-05-05 01:54 57.05701 -38.27440 37252 ft 458 kts 269°
2026-05-05 01:55 57.05388 -38.39173 37250 ft 459 kts 269°
2026-05-05 01:55 57.05069 -38.50793 37253 ft 459 kts 269°
2026-05-05 01:56 57.04739 -38.62397 37256 ft 459 kts 269°
2026-05-05 01:56 57.04395 -38.74099 37262 ft 460 kts 268°
2026-05-05 01:57 57.04041 -38.85775 37254 ft 460 kts 268°
2026-05-05 01:57 57.03677 -38.97457 37254 ft 460 kts 269°
2026-05-05 01:58 57.03303 -39.09061 37237 ft 459 kts 269°
2026-05-05 01:58 57.02917 -39.20733 37236 ft 459 kts 269°
2026-05-05 01:59 57.02519 -39.32392 37235 ft 458 kts 269°
2026-05-05 01:59 57.02112 -39.44008 37241 ft 458 kts 269°
2026-05-05 02:00 57.01697 -39.55594 37061 ft 458 kts 269°
2026-05-05 02:00 57.01482 -39.61436 37231 ft 455 kts 269°
2026-05-05 02:00 57.01267 -39.67209 37248 ft 457 kts 268°
2026-05-05 02:01 57.00828 -39.78825 37242 ft 459 kts 268°
2026-05-05 02:01 57.00376 -39.90494 37234 ft 460 kts 268°
2026-05-05 02:02 56.99900 -40.02085 37234 ft 459 kts 268°
2026-05-05 02:02 56.99205 -40.13707 37238 ft 459 kts 266°
2026-05-05 02:03 56.98514 -40.25250 37225 ft 458 kts 266°
2026-05-05 02:03 56.97816 -40.36774 37222 ft 459 kts 266°
2026-05-05 02:04 56.97106 -40.48336 37221 ft 459 kts 266°
2026-05-05 02:04 56.96743 -40.54183 37376 ft 459 kts 266°
2026-05-05 02:04 56.96380 -40.59975 37077 ft 459 kts 266°
2026-05-05 02:05 56.96019 -40.65718 37289 ft 453 kts 266°
2026-05-05 02:05 56.95659 -40.71381 37124 ft 459 kts 266°
2026-05-05 02:05 56.94922 -40.82861 37294 ft 454 kts 265°
2026-05-05 02:06 56.94168 -40.94409 37206 ft 459 kts 266°
2026-05-05 02:06 56.93413 -41.05866 37221 ft 454 kts 266°
2026-05-05 02:07 56.92650 -41.17248 37223 ft 451 kts 266°
2026-05-05 02:07 56.91875 -41.28607 37213 ft 453 kts 266°
2026-05-05 02:08 56.91090 -41.39999 37200 ft 452 kts 266°
2026-05-05 02:08 56.90296 -41.51368 37198 ft 451 kts 266°
2026-05-05 02:09 56.89494 -41.62695 37195 ft 449 kts 266°
2026-05-05 02:09 56.88685 -41.73959 37201 ft 450 kts 265°
2026-05-05 02:10 56.87861 -41.85288 37193 ft 451 kts 265°
2026-05-05 02:10 56.87028 -41.96615 37194 ft 450 kts 266°
2026-05-05 02:11 56.86190 -42.07868 37199 ft 447 kts 266°
2026-05-05 02:11 56.85346 -42.19043 37192 ft 446 kts 266°
2026-05-05 02:12 56.84062 -42.35806 37075 ft 443 kts 266°
2026-05-05 02:12 56.83629 -42.41368 37229 ft 443 kts 265°
2026-05-05 02:13 56.83194 -42.46948 37131 ft 446 kts 265°
2026-05-05 02:13 56.82322 -42.58044 37188 ft 447 kts 265°
2026-05-05 02:14 56.81427 -42.69260 37182 ft 447 kts 265°
2026-05-05 02:14 56.80532 -42.80399 37178 ft 443 kts 265°
2026-05-05 02:15 56.79634 -42.91430 37171 ft 441 kts 265°
2026-05-05 02:15 56.78724 -43.02449 37176 ft 440 kts 265°
2026-05-05 02:16 56.77803 -43.13499 37171 ft 440 kts 265°
2026-05-05 02:16 56.76875 -43.24497 37158 ft 441 kts 265°
2026-05-05 02:17 56.75938 -43.35503 37143 ft 440 kts 265°
2026-05-05 02:17 56.74996 -43.46450 37145 ft 439 kts 265°
2026-05-05 02:18 56.74040 -43.57438 37142 ft 438 kts 265°
2026-05-05 02:18 56.73082 -43.68318 37153 ft 436 kts 264°
2026-05-05 02:19 56.72117 -43.79197 37144 ft 435 kts 264°
2026-05-05 02:19 56.71144 -43.90017 37135 ft 435 kts 264°
2026-05-05 02:20 56.70168 -44.00779 37130 ft 433 kts 264°
2026-05-05 02:20 56.69179 -44.11565 37118 ft 433 kts 264°
2026-05-05 02:21 56.68185 -44.22321 37127 ft 431 kts 264°
2026-05-05 02:21 56.67180 -44.33086 37124 ft 432 kts 264°
2026-05-05 02:22 56.66167 -44.43808 37104 ft 431 kts 264°
2026-05-05 02:22 56.65149 -44.54519 37101 ft 431 kts 264°
2026-05-05 02:23 56.64123 -44.65163 37090 ft 430 kts 263°
2026-05-05 02:23 56.63091 -44.75803 37095 ft 428 kts 263°
2026-05-05 02:24 56.62051 -44.86423 37093 ft 428 kts 262°
2026-05-05 02:24 56.60999 -44.97075 37096 ft 428 kts 262°
2026-05-05 02:25 56.59946 -45.07627 37081 ft 428 kts 262°
2026-05-05 02:25 56.58885 -45.18158 37061 ft 428 kts 262°
2026-05-05 02:26 56.57805 -45.28783 37063 ft 428 kts 262°
2026-05-05 02:26 56.56727 -45.39300 37081 ft 429 kts 262°
2026-05-05 02:27 56.55628 -45.49933 37085 ft 429 kts 262°
2026-05-05 02:27 56.54523 -45.60516 37067 ft 430 kts 261°
2026-05-05 02:28 56.53403 -45.71161 37065 ft 431 kts 260°
2026-05-05 02:28 56.52277 -45.81774 37045 ft 431 kts 260°
2026-05-05 02:29 56.51141 -45.92383 37052 ft 431 kts 260°
2026-05-05 02:29 56.49996 -46.02983 37047 ft 431 kts 260°
2026-05-05 02:30 56.48834 -46.13637 37053 ft 433 kts 260°
2026-05-05 02:30 56.47678 -46.24189 37041 ft 432 kts 259°
2026-05-05 02:31 56.46499 -46.34839 37031 ft 433 kts 259°
2026-05-05 02:31 56.45312 -46.45457 37041 ft 433 kts 259°
2026-05-05 02:32 56.44110 -46.56124 37033 ft 434 kts 259°
2026-05-05 02:32 56.42897 -46.66821 37027 ft 435 kts 258°
2026-05-05 02:33 56.41674 -46.77497 37007 ft 436 kts 258°
2026-05-05 02:33 56.40443 -46.88164 37012 ft 437 kts 258°
2026-05-05 02:34 56.39208 -46.98795 37005 ft 438 kts 258°
2026-05-05 02:34 56.37945 -47.09557 37005 ft 439 kts 258°
2026-05-05 02:35 56.36678 -47.20272 36994 ft 439 kts 258°
2026-05-05 02:35 56.35403 -47.30989 36983 ft 439 kts 257°
2026-05-05 02:36 56.34114 -47.41729 36966 ft 438 kts 257°
2026-05-05 02:36 56.32822 -47.52408 36974 ft 439 kts 257°
2026-05-05 02:37 56.31518 -47.63080 36973 ft 439 kts 257°
2026-05-05 02:37 56.30200 -47.73815 36965 ft 439 kts 256°
2026-05-05 02:38 56.28871 -47.84541 36945 ft 441 kts 256°
2026-05-05 02:38 56.27538 -47.95219 36948 ft 440 kts 256°
2026-05-05 02:39 56.26187 -48.05957 36927 ft 442 kts 256°
2026-05-05 02:39 56.24831 -48.16664 36924 ft 443 kts 256°
2026-05-05 02:40 56.23461 -48.27402 36915 ft 442 kts 256°
2026-05-05 02:40 56.22084 -48.38098 36930 ft 441 kts 255°
2026-05-05 02:41 56.20692 -48.48840 36910 ft 442 kts 255°
2026-05-05 02:41 56.19295 -48.59547 36905 ft 442 kts 255°
2026-05-05 02:42 56.17887 -48.70252 36906 ft 443 kts 254°
2026-05-05 02:42 56.16464 -48.80981 36903 ft 444 kts 254°
2026-05-05 02:43 56.15032 -48.91726 36892 ft 444 kts 254°
2026-05-05 02:43 56.13593 -49.02428 36914 ft 444 kts 254°
2026-05-05 02:44 56.12146 -49.13122 36904 ft 445 kts 253°
2026-05-05 02:44 56.10680 -49.23876 36895 ft 444 kts 253°
2026-05-05 02:45 56.09204 -49.34617 36883 ft 445 kts 253°
2026-05-05 02:45 56.07727 -49.45301 36871 ft 446 kts 253°
2026-05-05 02:46 56.06234 -49.56028 36879 ft 445 kts 253°
2026-05-05 02:46 56.04735 -49.66716 36877 ft 446 kts 252°
2026-05-05 02:47 56.03216 -49.77472 36873 ft 447 kts 252°
2026-05-05 02:47 56.01693 -49.88182 36871 ft 448 kts 252°
2026-05-05 02:48 56.00119 -49.98853 36847 ft 445 kts 247°
2026-05-05 02:48 55.97809 -50.09029 36841 ft 444 kts 244°
2026-05-05 02:49 55.95393 -50.19122 36841 ft 445 kts 244°
2026-05-05 02:49 55.92948 -50.29218 36828 ft 444 kts 243°
2026-05-05 02:50 55.90503 -50.39257 36818 ft 444 kts 243°
2026-05-05 02:50 55.88047 -50.49297 36817 ft 445 kts 243°
2026-05-05 02:51 55.85569 -50.59378 36816 ft 445 kts 243°
2026-05-05 02:51 55.83087 -50.69418 36816 ft 446 kts 242°
2026-05-05 02:52 55.80603 -50.79441 36802 ft 447 kts 242°
2026-05-05 02:52 55.78077 -50.89576 36803 ft 448 kts 242°
2026-05-05 02:53 55.75558 -50.99635 36799 ft 449 kts 242°
2026-05-05 02:53 55.73025 -51.09714 36787 ft 448 kts 242°
2026-05-05 02:54 55.70504 -51.19690 36779 ft 448 kts 242°
2026-05-05 02:54 55.67947 -51.29762 36769 ft 448 kts 242°
2026-05-05 02:55 55.65398 -51.39763 36766 ft 449 kts 242°
2026-05-05 02:55 55.62824 -51.49808 36758 ft 450 kts 242°
2026-05-05 02:56 55.60247 -51.59831 36763 ft 450 kts 241°
2026-05-05 02:56 55.57669 -51.69814 36756 ft 449 kts 240°
2026-05-05 02:57 55.55055 -51.79878 36755 ft 450 kts 240°
2026-05-05 02:57 55.52442 -51.89898 36751 ft 452 kts 240°
2026-05-05 02:58 55.49820 -51.99911 36736 ft 453 kts 240°
2026-05-05 02:58 55.47190 -52.09913 36738 ft 452 kts 240°
2026-05-05 02:59 55.44544 -52.19923 36731 ft 454 kts 239°
2026-05-05 02:59 55.41880 -52.29968 36730 ft 454 kts 239°
2026-05-05 03:00 55.39227 -52.39927 36714 ft 452 kts 239°
2026-05-05 03:00 55.36547 -52.49928 36718 ft 455 kts 239°
2026-05-05 03:01 55.33843 -52.59976 36703 ft 458 kts 239°
2026-05-05 03:01 55.31142 -52.69981 36692 ft 457 kts 239°
2026-05-05 03:02 55.28425 -52.80003 36688 ft 456 kts 238°
2026-05-05 03:02 55.25692 -52.90028 36674 ft 457 kts 238°
2026-05-05 03:03 55.22972 -52.99974 36656 ft 457 kts 238°
2026-05-05 03:03 55.20209 -53.10021 36646 ft 458 kts 238°
2026-05-05 03:04 55.17454 -53.19997 36655 ft 459 kts 238°
2026-05-05 03:04 55.14674 -53.30021 36654 ft 461 kts 238°
2026-05-05 03:05 55.11879 -53.40060 36650 ft 462 kts 238°
2026-05-05 03:05 55.09070 -53.50106 36636 ft 461 kts 238°
2026-05-05 03:06 55.06253 -53.60129 36638 ft 463 kts 238°
2026-05-05 03:06 55.03422 -53.70164 36622 ft 465 kts 237°
2026-05-05 03:07 55.00563 -53.80258 36607 ft 465 kts 237°
2026-05-05 03:07 54.97706 -53.90294 36613 ft 466 kts 237°
2026-05-05 03:08 54.94850 -54.00294 36603 ft 465 kts 237°
2026-05-05 03:08 54.91973 -54.10313 36591 ft 465 kts 237°
2026-05-05 03:09 54.89081 -54.20340 36606 ft 466 kts 237°
2026-05-05 03:09 54.86187 -54.30343 36593 ft 467 kts 237°
2026-05-05 03:10 54.83270 -54.40375 36591 ft 467 kts 237°
2026-05-05 03:10 54.80329 -54.50446 36591 ft 469 kts 236°
2026-05-05 03:11 54.77404 -54.60424 36589 ft 469 kts 236°
2026-05-05 03:11 54.74445 -54.70472 36581 ft 468 kts 236°
2026-05-05 03:12 54.71502 -54.80426 36558 ft 468 kts 235°
2026-05-05 03:12 54.68533 -54.90414 36566 ft 469 kts 236°
2026-05-05 03:13 54.65553 -55.00408 36556 ft 470 kts 235°
2026-05-05 03:13 54.62564 -55.10386 36545 ft 471 kts 235°
2026-05-05 03:14 54.59555 -55.20392 36530 ft 471 kts 235°
2026-05-05 03:14 54.56545 -55.30353 36535 ft 472 kts 236°
2026-05-05 03:15 54.53527 -55.40307 36528 ft 472 kts 235°
2026-05-05 03:15 54.50489 -55.50278 36523 ft 474 kts 235°
2026-05-05 03:16 54.47419 -55.60313 36523 ft 475 kts 235°
2026-05-05 03:16 54.44355 -55.70293 36515 ft 474 kts 234°
2026-05-05 03:17 54.41289 -55.80236 36518 ft 473 kts 235°
2026-05-05 03:17 54.38183 -55.90252 36517 ft 476 kts 234°
2026-05-05 03:18 54.35096 -56.00181 36512 ft 476 kts 235°
2026-05-05 03:18 54.31968 -56.10194 36491 ft 477 kts 235°
2026-05-05 03:19 54.27266 -56.25168 36486 ft 479 kts 235°
2026-05-05 03:19 54.24132 -56.35109 36466 ft 479 kts 234°
2026-05-05 03:20 54.20964 -56.45099 36478 ft 478 kts 234°
2026-05-05 03:20 54.17800 -56.55050 36472 ft 479 kts 234°
2026-05-05 03:21 54.14613 -56.65017 36488 ft 480 kts 234°
2026-05-05 03:21 54.11415 -56.74991 36457 ft 480 kts 234°
2026-05-05 03:22 54.08222 -56.84900 36435 ft 480 kts 234°
2026-05-05 03:22 54.05008 -56.94833 36462 ft 482 kts 234°
2026-05-05 03:23 54.02332 -57.05302 36470 ft 498 kts 250°
2026-05-05 03:23 54.00588 -57.16675 36440 ft 498 kts 248°
2026-05-05 03:24 53.98733 -57.27962 36467 ft 497 kts 248°
2026-05-05 03:24 53.96871 -57.39151 36447 ft 497 kts 248°
2026-05-05 03:25 53.94991 -57.50388 36423 ft 496 kts 248°
2026-05-05 03:25 53.93097 -57.61610 36424 ft 497 kts 248°
2026-05-05 03:26 53.91188 -57.72875 36426 ft 497 kts 247°
2026-05-05 03:26 53.89283 -57.84030 36424 ft 496 kts 247°
2026-05-05 03:27 53.87356 -57.95242 36432 ft 497 kts 248°
2026-05-05 03:27 53.85422 -58.06425 36439 ft 497 kts 248°
2026-05-05 03:28 53.83476 -58.17607 36421 ft 497 kts 248°
2026-05-05 03:28 53.82504 -58.23174 36591 ft 498 kts 248°
2026-05-05 03:28 53.81527 -58.28742 36392 ft 499 kts 248°
2026-05-05 03:29 53.79543 -58.40001 36418 ft 499 kts 248°
2026-05-05 03:29 53.78557 -58.45580 36593 ft 498 kts 248°
2026-05-05 03:29 53.77562 -58.51186 36436 ft 501 kts 248°
2026-05-05 03:30 53.75588 -58.62268 36409 ft 494 kts 248°
2026-05-05 03:30 53.73589 -58.73394 36373 ft 498 kts 246°
2026-05-05 03:31 53.71570 -58.84567 36370 ft 499 kts 247°
2026-05-05 03:31 53.69557 -58.95645 36386 ft 499 kts 247°
2026-05-05 03:32 53.67505 -59.06867 36403 ft 501 kts 247°
2026-05-05 03:32 53.65454 -59.18023 36404 ft 502 kts 247°
2026-05-05 03:33 53.63392 -59.29182 36401 ft 499 kts 247°
2026-05-05 03:33 53.61315 -59.40327 36374 ft 501 kts 247°
2026-05-05 03:34 53.59228 -59.51471 36403 ft 503 kts 247°
2026-05-05 03:34 53.57127 -59.62629 36405 ft 504 kts 248°
2026-05-05 03:35 53.55006 -59.73838 36401 ft 503 kts 246°
2026-05-05 03:35 53.52887 -59.84953 36407 ft 502 kts 247°
2026-05-05 03:36 53.50753 -59.96094 36392 ft 501 kts 247°
2026-05-05 03:36 53.48592 -60.07185 36393 ft 503 kts 246°
2026-05-05 03:37 53.46408 -60.18267 36405 ft 504 kts 247°
2026-05-05 03:37 53.44217 -60.29346 36409 ft 504 kts 247°
2026-05-05 03:38 53.42010 -60.40423 36412 ft 503 kts 247°
2026-05-05 03:38 53.39792 -60.51494 36427 ft 503 kts 247°
2026-05-05 03:39 53.37568 -60.62537 36408 ft 503 kts 247°
2026-05-05 03:39 53.35327 -60.73598 36408 ft 503 kts 246°
2026-05-05 03:40 53.33079 -60.84637 36400 ft 503 kts 246°
2026-05-05 03:40 53.30822 -60.95657 36386 ft 503 kts 246°
2026-05-05 03:41 53.28562 -61.06638 36375 ft 503 kts 246°
2026-05-05 03:41 53.26279 -61.17658 36381 ft 502 kts 246°
2026-05-05 03:42 53.24007 -61.28571 36397 ft 502 kts 246°
2026-05-05 03:42 53.21697 -61.39598 36391 ft 502 kts 246°
2026-05-05 03:43 53.19400 -61.50508 36400 ft 502 kts 247°
2026-05-05 03:43 53.17079 -61.61476 36397 ft 503 kts 247°
2026-05-05 03:44 53.14763 -61.72355 36372 ft 502 kts 246°
2026-05-05 03:44 53.12432 -61.83254 36383 ft 502 kts 246°
2026-05-05 03:45 53.10080 -61.94192 36377 ft 502 kts 246°
2026-05-05 03:45 53.07741 -62.05008 36386 ft 501 kts 246°
2026-05-05 03:46 53.05372 -62.15901 36400 ft 501 kts 246°
2026-05-05 03:46 53.03000 -62.26747 36403 ft 504 kts 246°
2026-05-05 03:47 53.00607 -62.37644 36397 ft 503 kts 246°
2026-05-05 03:47 52.98227 -62.48426 36401 ft 502 kts 246°
2026-05-05 03:48 52.95814 -62.59296 36406 ft 502 kts 246°
2026-05-05 03:48 52.93417 -62.70039 36377 ft 501 kts 246°
2026-05-05 03:49 52.90989 -62.80861 36398 ft 502 kts 246°
2026-05-05 03:49 52.88561 -62.91622 36397 ft 502 kts 246°
2026-05-05 03:50 52.86120 -63.02396 36409 ft 502 kts 246°
2026-05-05 03:50 52.83672 -63.13148 36396 ft 501 kts 246°
2026-05-05 03:51 52.81224 -63.23838 36385 ft 501 kts 246°
2026-05-05 03:51 52.78749 -63.34599 36391 ft 501 kts 246°
2026-05-05 03:52 52.76275 -63.45289 36412 ft 503 kts 246°
2026-05-05 03:52 52.73777 -63.56034 36403 ft 504 kts 246°
2026-05-05 03:53 52.71269 -63.66773 36406 ft 503 kts 245°
2026-05-05 03:53 52.68761 -63.77457 36400 ft 502 kts 245°
2026-05-05 03:54 52.66237 -63.88152 36404 ft 503 kts 245°
2026-05-05 03:54 52.63709 -63.98809 36417 ft 503 kts 245°
2026-05-05 03:55 52.61166 -64.09489 36419 ft 502 kts 245°
2026-05-05 03:55 52.58625 -64.20100 36425 ft 501 kts 245°
2026-05-05 03:56 52.56067 -64.30722 36432 ft 501 kts 245°
2026-05-05 03:56 52.53513 -64.41288 36426 ft 501 kts 246°
2026-05-05 03:57 52.50951 -64.51831 36445 ft 500 kts 246°
2026-05-05 03:57 52.48379 -64.62367 36450 ft 499 kts 246°
2026-05-05 03:58 52.45790 -64.72916 36444 ft 498 kts 245°
2026-05-05 03:58 52.43221 -64.83339 36458 ft 498 kts 245°
2026-05-05 03:59 52.40633 -64.93787 36469 ft 497 kts 245°
2026-05-05 03:59 52.38034 -65.04230 36466 ft 497 kts 245°
2026-05-05 04:00 52.35434 -65.14626 36461 ft 496 kts 245°
2026-05-05 04:00 52.32814 -65.25063 36464 ft 495 kts 245°
2026-05-05 04:01 52.30204 -65.35400 36468 ft 494 kts 245°
2026-05-05 04:01 52.27583 -65.45734 36472 ft 495 kts 245°
2026-05-05 04:02 52.24958 -65.56043 36471 ft 495 kts 245°
2026-05-05 04:02 52.22328 -65.66321 36484 ft 495 kts 245°
2026-05-05 04:03 52.19673 -65.76651 36485 ft 494 kts 245°
2026-05-05 04:03 52.17027 -65.86897 36475 ft 494 kts 245°
2026-05-05 04:04 52.14361 -65.97174 36481 ft 494 kts 245°
2026-05-05 04:04 52.11680 -66.07465 36492 ft 493 kts 245°
2026-05-05 04:05 52.09020 -66.17622 36507 ft 493 kts 245°
2026-05-05 04:05 52.06334 -66.27833 36510 ft 493 kts 245°
2026-05-05 04:06 52.03640 -66.38037 36521 ft 492 kts 245°
2026-05-05 04:06 52.00951 -66.48167 36515 ft 492 kts 245°
2026-05-05 04:07 51.98254 -66.58292 36519 ft 491 kts 245°
2026-05-05 04:07 51.95539 -66.68434 36532 ft 491 kts 244°
2026-05-05 04:08 51.92827 -66.78522 36545 ft 490 kts 244°
2026-05-05 04:08 51.90106 -66.88597 36535 ft 490 kts 244°
2026-05-05 04:09 51.87374 -66.98671 36531 ft 489 kts 244°
2026-05-05 04:09 51.84660 -67.08637 36526 ft 487 kts 245°
2026-05-05 04:10 51.81924 -67.18632 36505 ft 488 kts 245°
2026-05-05 04:10 51.79186 -67.28598 36496 ft 489 kts 245°
2026-05-05 04:11 51.76419 -67.38625 36501 ft 489 kts 245°
2026-05-05 04:11 51.73670 -67.48546 36516 ft 489 kts 245°
2026-05-05 04:12 51.70907 -67.58477 36531 ft 487 kts 245°
2026-05-05 04:12 51.68129 -67.68414 36536 ft 486 kts 244°
2026-05-05 04:13 51.65351 -67.78310 36540 ft 486 kts 244°
2026-05-05 04:13 51.62579 -67.88141 36546 ft 486 kts 244°
2026-05-05 04:14 51.59788 -67.98006 36548 ft 486 kts 244°
2026-05-05 04:14 51.56997 -68.07825 36555 ft 485 kts 244°
2026-05-05 04:15 51.54188 -68.17666 36570 ft 485 kts 244°
2026-05-05 04:15 51.51397 -68.27400 36589 ft 485 kts 244°
2026-05-05 04:16 51.48574 -68.37209 36588 ft 486 kts 244°
2026-05-05 04:16 51.45741 -68.47016 36591 ft 486 kts 244°
2026-05-05 04:17 51.42905 -68.56794 36597 ft 485 kts 244°
2026-05-05 04:17 51.40066 -68.66536 36582 ft 484 kts 243°
2026-05-05 04:18 51.37228 -68.76238 36587 ft 483 kts 243°
2026-05-05 04:18 51.34397 -68.85879 36594 ft 482 kts 243°
2026-05-05 04:19 51.31538 -68.95571 36616 ft 482 kts 243°
2026-05-05 04:19 51.28680 -69.05219 36619 ft 482 kts 243°
2026-05-05 04:20 51.25825 -69.14820 36621 ft 483 kts 243°
2026-05-05 04:20 51.22945 -69.24470 36600 ft 484 kts 243°
2026-05-05 04:21 51.20052 -69.34124 36607 ft 483 kts 243°
2026-05-05 04:21 51.17152 -69.43764 36602 ft 483 kts 244°
2026-05-05 04:22 51.14268 -69.53313 36591 ft 483 kts 243°
2026-05-05 04:22 51.11350 -69.62931 36588 ft 482 kts 243°
2026-05-05 04:23 51.08443 -69.72482 36585 ft 482 kts 243°
2026-05-05 04:23 51.05520 -69.82040 36590 ft 483 kts 243°
2026-05-05 04:24 51.02583 -69.91610 36589 ft 483 kts 243°
2026-05-05 04:25 50.97622 -70.05378 36628 ft 481 kts 239°
2026-05-05 04:25 50.94072 -70.14307 36612 ft 483 kts 236°
2026-05-05 04:26 50.90402 -70.23189 36624 ft 481 kts 236°
2026-05-05 04:26 50.86747 -70.31976 36643 ft 479 kts 236°
2026-05-05 04:27 50.83092 -70.40722 36644 ft 480 kts 236°
2026-05-05 04:27 50.79398 -70.49534 36627 ft 482 kts 236°
2026-05-05 04:28 50.75695 -70.58340 36646 ft 482 kts 236°
2026-05-05 04:28 50.71994 -70.67110 36650 ft 482 kts 235°
2026-05-05 04:29 50.68296 -70.75848 36647 ft 481 kts 235°
2026-05-05 04:29 50.64590 -70.84573 36634 ft 480 kts 235°
2026-05-05 04:30 50.60901 -70.93227 36625 ft 480 kts 235°
2026-05-05 04:30 50.57180 -71.01929 36617 ft 480 kts 235°
2026-05-05 04:31 50.53468 -71.10582 36629 ft 481 kts 235°
2026-05-05 04:31 50.49740 -71.19241 36631 ft 481 kts 236°
2026-05-05 04:32 50.45979 -71.27950 36637 ft 481 kts 236°
2026-05-05 04:32 50.42255 -71.36546 36640 ft 480 kts 236°
2026-05-05 04:33 50.38520 -71.45137 36639 ft 479 kts 236°
2026-05-05 04:33 50.34763 -71.53751 36634 ft 479 kts 236°
2026-05-05 04:34 50.31015 -71.62315 36631 ft 479 kts 236°
2026-05-05 04:34 50.27242 -71.70908 36644 ft 479 kts 235°
2026-05-05 04:35 50.23487 -71.79436 36644 ft 479 kts 235°
2026-05-05 04:35 50.19721 -71.87959 36654 ft 478 kts 235°
2026-05-05 04:36 50.15958 -71.96448 36658 ft 478 kts 235°
2026-05-05 04:36 50.12187 -72.04926 36666 ft 478 kts 235°
2026-05-05 04:37 50.08403 -72.13409 36666 ft 478 kts 235°
2026-05-05 04:37 50.04628 -72.21842 36668 ft 477 kts 235°
2026-05-05 04:38 50.00835 -72.30289 36654 ft 477 kts 235°
2026-05-05 04:38 49.97045 -72.38705 36637 ft 477 kts 235°
2026-05-05 04:39 49.93247 -72.47111 36636 ft 477 kts 235°
2026-05-05 04:39 49.89434 -72.55518 36644 ft 477 kts 235°
2026-05-05 04:40 49.85628 -72.63887 36661 ft 477 kts 236°
2026-05-05 04:40 49.81807 -72.72266 36659 ft 477 kts 235°
2026-05-05 04:41 49.77990 -72.80605 36664 ft 477 kts 235°
2026-05-05 04:41 49.74172 -72.88923 36662 ft 477 kts 235°
2026-05-05 04:42 49.70343 -72.97239 36660 ft 476 kts 235°
2026-05-05 04:42 49.66529 -73.05494 36670 ft 475 kts 235°
2026-05-05 04:43 49.62686 -73.13788 36669 ft 476 kts 235°
2026-05-05 04:43 49.58834 -73.22074 36666 ft 475 kts 235°
2026-05-05 04:44 49.55020 -73.30254 36668 ft 475 kts 235°
2026-05-05 04:44 49.51161 -73.38502 36667 ft 475 kts 235°
2026-05-05 04:45 49.47316 -73.46698 36664 ft 475 kts 236°
2026-05-05 04:45 49.43448 -73.54919 36661 ft 474 kts 236°
2026-05-05 04:46 49.39613 -73.63043 36651 ft 474 kts 236°
2026-05-05 04:46 49.35758 -73.71184 36649 ft 474 kts 235°
2026-05-05 04:47 49.31885 -73.79336 36646 ft 475 kts 235°
2026-05-05 04:47 49.27993 -73.87507 36648 ft 475 kts 235°
2026-05-05 04:48 49.24103 -73.95649 36647 ft 474 kts 235°
2026-05-05 04:48 49.20233 -74.03721 36649 ft 474 kts 235°
2026-05-05 04:49 49.16331 -74.11838 36654 ft 474 kts 235°
2026-05-05 04:49 49.12446 -74.19894 36661 ft 474 kts 236°
2026-05-05 04:50 49.08544 -74.27961 36657 ft 474 kts 236°
2026-05-05 04:50 49.04656 -74.35976 36664 ft 473 kts 236°
2026-05-05 04:51 49.00739 -74.44028 36661 ft 473 kts 236°
2026-05-05 04:51 48.96841 -74.52013 36661 ft 473 kts 236°
2026-05-05 04:52 48.92932 -74.59998 36667 ft 473 kts 236°
2026-05-05 04:52 48.89003 -74.68005 36659 ft 472 kts 235°
2026-05-05 04:53 48.85102 -74.75922 36665 ft 471 kts 235°
2026-05-05 04:53 48.81169 -74.83888 36655 ft 471 kts 235°
2026-05-05 04:54 48.77273 -74.91756 36651 ft 470 kts 236°
2026-05-05 04:54 48.73363 -74.99624 36662 ft 469 kts 236°
2026-05-05 04:55 48.69458 -75.07462 36663 ft 469 kts 236°
2026-05-05 04:55 48.65518 -75.15344 36659 ft 470 kts 236°
2026-05-05 04:56 48.61597 -75.23171 36673 ft 469 kts 236°
2026-05-05 04:56 48.57669 -75.30988 36666 ft 468 kts 236°
2026-05-05 04:57 48.53737 -75.38788 36648 ft 467 kts 236°
2026-05-05 04:57 48.49815 -75.46542 36642 ft 469 kts 236°
2026-05-05 04:58 48.45878 -75.54308 36656 ft 467 kts 236°
2026-05-05 04:58 48.41916 -75.62103 36665 ft 466 kts 237°
2026-05-05 04:59 48.37996 -75.69791 36652 ft 466 kts 236°
2026-05-05 04:59 48.34063 -75.77482 36661 ft 465 kts 236°
2026-05-05 05:00 48.30117 -75.85178 36661 ft 464 kts 236°
2026-05-05 05:00 48.26191 -75.92811 36665 ft 465 kts 236°
2026-05-05 05:01 48.22229 -76.00491 36654 ft 465 kts 236°
2026-05-05 05:01 48.18287 -76.08116 36658 ft 464 kts 236°
2026-05-05 05:02 48.14336 -76.15732 36642 ft 464 kts 236°
2026-05-05 05:02 48.10370 -76.23355 36635 ft 464 kts 236°
2026-05-05 05:03 48.06413 -76.30941 36650 ft 461 kts 237°
2026-05-05 05:03 48.02471 -76.38482 36635 ft 460 kts 237°
2026-05-05 05:04 47.98556 -76.45948 36656 ft 460 kts 237°
2026-05-05 05:04 47.94602 -76.53463 36652 ft 459 kts 237°
2026-05-05 05:05 47.90673 -76.60912 36643 ft 460 kts 237°
2026-05-05 05:05 47.86706 -76.68413 36626 ft 461 kts 236°
2026-05-05 05:06 47.82744 -76.75885 36658 ft 459 kts 236°
2026-05-05 05:06 47.78796 -76.83308 36657 ft 458 kts 236°
2026-05-05 05:07 47.74863 -76.90685 36645 ft 458 kts 236°
2026-05-05 05:07 47.70909 -76.98083 36658 ft 457 kts 236°
2026-05-05 05:08 47.66969 -77.05427 36644 ft 457 kts 237°
2026-05-05 05:08 47.63008 -77.12798 36654 ft 456 kts 237°
2026-05-05 05:09 47.59087 -77.20072 36656 ft 455 kts 237°
2026-05-05 05:09 47.55127 -77.27396 36645 ft 454 kts 237°
2026-05-05 05:10 47.51191 -77.34663 36631 ft 454 kts 237°
2026-05-05 05:10 47.47250 -77.41914 36645 ft 455 kts 237°
2026-05-05 05:11 47.43295 -77.49174 36645 ft 455 kts 237°
2026-05-05 05:11 47.39323 -77.56444 36646 ft 454 kts 237°
2026-05-05 05:12 47.35388 -77.63630 36632 ft 453 kts 237°
2026-05-05 05:12 47.31391 -77.70905 36643 ft 454 kts 236°
2026-05-05 05:13 47.27444 -77.78078 36642 ft 454 kts 236°
2026-05-05 05:13 47.23476 -77.85262 36633 ft 452 kts 236°
2026-05-05 05:14 47.19513 -77.92423 36624 ft 452 kts 236°
2026-05-05 05:14 47.15535 -77.99588 36642 ft 453 kts 236°
2026-05-05 05:15 47.11579 -78.06702 36631 ft 452 kts 236°
2026-05-05 05:15 47.07588 -78.13856 36628 ft 452 kts 236°
2026-05-05 05:16 47.03636 -78.20923 36642 ft 451 kts 236°
2026-05-05 05:16 46.99643 -78.28042 36636 ft 451 kts 236°
2026-05-05 05:17 46.95672 -78.35104 36629 ft 450 kts 236°
2026-05-05 05:17 46.91718 -78.42118 36623 ft 450 kts 236°
2026-05-05 05:18 46.87731 -78.49173 36622 ft 451 kts 236°
2026-05-05 05:18 46.83749 -78.56198 36618 ft 450 kts 236°
2026-05-05 05:19 46.79760 -78.63222 36617 ft 450 kts 236°
2026-05-05 05:19 46.75776 -78.70220 36635 ft 449 kts 236°
2026-05-05 05:20 46.71775 -78.77227 36633 ft 449 kts 236°
2026-05-05 05:20 46.67793 -78.84182 36633 ft 449 kts 236°
2026-05-05 05:21 46.63806 -78.91129 36670 ft 449 kts 236°
2026-05-05 05:21 46.59804 -78.98086 36537 ft 443 kts 236°
2026-05-05 05:21 46.57841 -79.01490 36648 ft 445 kts 236°
2026-05-05 05:22 46.55862 -79.04919 36584 ft 450 kts 236°
2026-05-05 05:22 46.51817 -79.11916 36628 ft 454 kts 235°
2026-05-05 05:23 46.47760 -79.18913 36620 ft 456 kts 236°
2026-05-05 05:23 46.43706 -79.25890 36625 ft 450 kts 236°
2026-05-05 05:24 46.39714 -79.32745 36626 ft 448 kts 236°
2026-05-05 05:24 46.35683 -79.39646 36620 ft 447 kts 236°
2026-05-05 05:25 46.31677 -79.46485 36623 ft 448 kts 236°
2026-05-05 05:25 46.27751 -79.53177 36625 ft 448 kts 236°
2026-05-05 05:26 46.23723 -79.60023 36623 ft 446 kts 236°
2026-05-05 05:26 46.19713 -79.66823 36624 ft 445 kts 235°
2026-05-05 05:27 46.15701 -79.73602 36629 ft 447 kts 235°
2026-05-05 05:27 46.09684 -79.83751 36627 ft 446 kts 235°
2026-05-05 05:28 46.05674 -79.90491 36624 ft 445 kts 235°
2026-05-05 05:28 46.01636 -79.97262 36636 ft 445 kts 236°
2026-05-05 05:29 45.97649 -80.03967 36637 ft 441 kts 237°
2026-05-05 05:29 45.93742 -80.10733 36619 ft 443 kts 236°
2026-05-05 05:30 45.89807 -80.17474 36616 ft 442 kts 236°
2026-05-05 05:30 45.85860 -80.24213 36615 ft 441 kts 237°
2026-05-05 05:31 45.81920 -80.30925 36620 ft 441 kts 236°
2026-05-05 05:31 45.77978 -80.37619 36625 ft 440 kts 237°
2026-05-05 05:32 45.74030 -80.44312 36617 ft 440 kts 237°
2026-05-05 05:32 45.70093 -80.50967 36619 ft 440 kts 237°
2026-05-05 05:33 45.66154 -80.57614 36615 ft 440 kts 237°
2026-05-05 05:33 45.62217 -80.64236 36612 ft 440 kts 237°
2026-05-05 05:34 45.58260 -80.70880 36623 ft 441 kts 236°
2026-05-05 05:34 45.54299 -80.77514 36625 ft 440 kts 236°
2026-05-05 05:35 45.50346 -80.84122 36623 ft 439 kts 236°
2026-05-05 05:35 45.46383 -80.90725 36623 ft 440 kts 236°
2026-05-05 05:36 45.42396 -80.97354 36619 ft 440 kts 236°
2026-05-05 05:36 45.38435 -81.03928 36604 ft 440 kts 236°
2026-05-05 05:37 45.34490 -81.10458 36614 ft 438 kts 236°
2026-05-05 05:37 45.30511 -81.17026 36622 ft 439 kts 236°
2026-05-05 05:38 45.26533 -81.23581 36619 ft 438 kts 236°
2026-05-05 05:38 45.22566 -81.30102 36609 ft 437 kts 236°
2026-05-05 05:39 45.18621 -81.36567 36612 ft 438 kts 236°
2026-05-05 05:39 45.14632 -81.43092 36625 ft 438 kts 236°
2026-05-05 05:40 45.10649 -81.49592 36617 ft 439 kts 236°
2026-05-05 05:40 45.06683 -81.56052 36611 ft 436 kts 236°
2026-05-05 05:41 45.02709 -81.62510 36615 ft 436 kts 236°
2026-05-05 05:41 44.98705 -81.68994 36630 ft 439 kts 236°
2026-05-05 05:42 44.94716 -81.75449 36626 ft 439 kts 236°
2026-05-05 05:42 44.90711 -81.81911 36616 ft 437 kts 236°
2026-05-05 05:43 44.86718 -81.88339 36609 ft 436 kts 236°
2026-05-05 05:43 44.82735 -81.94733 36616 ft 438 kts 235°
2026-05-05 05:44 44.78725 -82.01157 36611 ft 437 kts 236°
2026-05-05 05:44 44.74714 -82.07571 36617 ft 437 kts 235°
2026-05-05 05:45 44.70729 -82.13928 36609 ft 437 kts 235°
2026-05-05 05:45 44.66716 -82.20313 36609 ft 437 kts 235°
2026-05-05 05:46 44.62700 -82.26691 36608 ft 437 kts 235°
2026-05-05 05:46 44.58678 -82.33061 36599 ft 437 kts 235°
2026-05-05 05:47 44.54680 -82.39382 36609 ft 436 kts 235°
2026-05-05 05:47 44.50653 -82.45731 36619 ft 437 kts 235°
2026-05-05 05:48 44.46615 -82.52085 36609 ft 436 kts 235°
2026-05-05 05:48 44.42609 -82.58378 36615 ft 435 kts 235°
2026-05-05 05:49 44.38565 -82.64709 36617 ft 437 kts 235°
2026-05-05 05:49 44.34536 -82.71004 36623 ft 438 kts 235°
2026-05-05 05:50 44.30470 -82.77349 36620 ft 437 kts 234°
2026-05-05 05:50 44.26428 -82.83637 36622 ft 437 kts 234°
2026-05-05 05:51 44.22375 -82.89929 36617 ft 438 kts 234°
2026-05-05 05:51 44.18346 -82.96172 36616 ft 437 kts 234°
2026-05-05 05:52 44.14267 -83.02474 36620 ft 437 kts 234°
2026-05-05 05:52 44.10228 -83.08704 36609 ft 438 kts 234°
2026-05-05 05:53 44.06163 -83.14960 36612 ft 437 kts 234°
2026-05-05 05:53 44.02063 -83.21252 36613 ft 438 kts 234°
2026-05-05 05:54 43.98005 -83.27471 36611 ft 436 kts 234°
2026-05-05 05:54 43.93935 -83.33695 36618 ft 435 kts 234°
2026-05-05 05:55 43.89867 -83.39899 36622 ft 437 kts 234°
2026-05-05 05:55 43.85762 -83.46143 36620 ft 438 kts 234°
2026-05-05 05:56 43.81683 -83.52339 36612 ft 438 kts 234°
2026-05-05 05:56 43.77591 -83.58539 36610 ft 439 kts 234°
2026-05-05 05:57 43.73490 -83.64739 36614 ft 438 kts 234°
2026-05-05 05:57 43.69348 -83.70988 36634 ft 441 kts 233°
2026-05-05 05:58 43.65208 -83.77222 36640 ft 441 kts 233°
2026-05-05 05:58 43.61069 -83.83437 36639 ft 441 kts 233°
2026-05-05 05:59 43.56937 -83.89632 36640 ft 440 kts 233°
2026-05-05 05:59 43.52778 -83.95852 36632 ft 440 kts 233°
2026-05-05 06:00 43.48661 -84.02049 36643 ft 440 kts 234°
2026-05-05 06:00 43.44577 -84.08309 36653 ft 440 kts 234°
2026-05-05 06:01 43.40476 -84.14580 36647 ft 441 kts 234°
2026-05-05 06:01 43.36377 -84.20834 36647 ft 441 kts 234°
2026-05-05 06:02 43.32303 -84.27037 36652 ft 440 kts 234°
2026-05-05 06:02 43.28199 -84.33265 36654 ft 442 kts 234°
2026-05-05 06:03 43.24072 -84.39522 36652 ft 441 kts 234°
2026-05-05 06:03 43.19983 -84.45707 36656 ft 441 kts 234°
2026-05-05 06:04 43.15843 -84.51952 36648 ft 442 kts 234°
2026-05-05 06:04 43.11724 -84.58156 36654 ft 442 kts 234°
2026-05-05 06:05 43.07613 -84.64333 36653 ft 443 kts 233°
2026-05-05 06:05 43.03464 -84.70551 36661 ft 444 kts 233°
2026-05-05 06:06 42.99303 -84.76780 36668 ft 444 kts 233°
2026-05-05 06:06 42.95141 -84.82993 36659 ft 445 kts 233°
2026-05-05 06:07 42.90987 -84.89178 36663 ft 445 kts 233°
2026-05-05 06:07 42.86810 -84.95388 36664 ft 444 kts 233°
2026-05-05 06:08 42.82641 -85.01572 36660 ft 445 kts 233°
2026-05-05 06:08 42.78480 -85.07726 36663 ft 445 kts 233°
2026-05-05 06:09 42.74271 -85.13946 36670 ft 446 kts 233°
2026-05-05 06:09 42.70087 -85.20112 36666 ft 445 kts 233°
2026-05-05 06:10 42.65904 -85.26264 36669 ft 446 kts 233°
2026-05-05 06:10 42.61695 -85.32439 36672 ft 447 kts 233°
2026-05-05 06:11 42.57484 -85.38604 36669 ft 446 kts 233°
2026-05-05 06:11 42.53280 -85.44747 36669 ft 447 kts 233°
2026-05-05 06:12 42.49048 -85.50917 36679 ft 447 kts 233°
2026-05-05 06:12 42.44816 -85.57075 36685 ft 447 kts 233°
2026-05-05 06:13 42.40582 -85.63222 36685 ft 448 kts 232°
2026-05-05 06:13 42.36327 -85.69387 36693 ft 448 kts 232°
2026-05-05 06:14 42.32091 -85.75510 36699 ft 450 kts 232°
2026-05-05 06:14 42.27802 -85.81698 36695 ft 450 kts 232°
2026-05-05 06:15 42.23536 -85.87840 36683 ft 449 kts 232°
2026-05-05 06:15 42.19248 -85.94001 36690 ft 449 kts 232°
2026-05-05 06:16 42.14996 -86.00092 36695 ft 449 kts 232°
2026-05-05 06:16 42.10710 -86.06223 36689 ft 449 kts 232°
2026-05-05 06:17 42.06421 -86.12347 36684 ft 449 kts 232°
2026-05-05 06:17 42.02117 -86.18477 36708 ft 450 kts 232°
2026-05-05 06:18 41.97827 -86.24574 36692 ft 451 kts 232°
2026-05-05 06:18 41.93530 -86.30671 36690 ft 451 kts 232°
2026-05-05 06:19 41.89213 -86.36781 36701 ft 451 kts 232°
2026-05-05 06:19 41.84888 -86.42890 36685 ft 450 kts 232°
2026-05-05 06:20 41.80568 -86.48978 36693 ft 451 kts 232°
2026-05-05 06:20 41.76264 -86.55032 36679 ft 451 kts 232°
2026-05-05 06:21 41.71954 -86.61080 36690 ft 450 kts 232°
2026-05-05 06:21 41.67641 -86.67123 36687 ft 451 kts 231°
2026-05-05 06:22 41.63300 -86.73189 36694 ft 451 kts 231°
2026-05-05 06:22 41.58987 -86.79208 36703 ft 451 kts 231°
2026-05-05 06:23 41.54629 -86.85274 36703 ft 452 kts 231°
2026-05-05 06:23 41.50277 -86.91318 36712 ft 453 kts 231°
2026-05-05 06:24 41.45898 -86.97388 36712 ft 453 kts 231°
2026-05-05 06:24 41.41546 -87.03410 36722 ft 453 kts 231°
2026-05-05 06:25 41.37168 -87.09455 36718 ft 452 kts 231°
2026-05-05 06:25 41.32769 -87.15515 36700 ft 453 kts 231°
2026-05-05 06:26 41.28397 -87.21527 36690 ft 453 kts 231°
2026-05-05 06:26 41.24033 -87.27512 36693 ft 453 kts 231°
2026-05-05 06:27 41.17440 -87.36536 36688 ft 455 kts 231°
2026-05-05 06:28 41.13046 -87.42532 36699 ft 455 kts 230°
2026-05-05 06:28 41.08637 -87.48540 36688 ft 455 kts 230°
2026-05-05 06:29 41.04221 -87.54541 36709 ft 456 kts 230°
2026-05-05 06:29 40.99808 -87.60529 36688 ft 455 kts 231°
2026-05-05 06:30 40.95397 -87.66501 36683 ft 456 kts 230°
2026-05-05 06:30 40.90960 -87.72496 36699 ft 456 kts 230°
2026-05-05 06:31 40.86521 -87.78482 36690 ft 456 kts 230°
2026-05-05 06:31 40.82105 -87.84425 36688 ft 455 kts 230°
2026-05-05 06:32 40.77680 -87.90366 36713 ft 456 kts 230°
2026-05-05 06:32 40.73258 -87.96291 36716 ft 455 kts 230°
2026-05-05 06:33 40.68792 -88.02266 36708 ft 456 kts 230°
2026-05-05 06:33 40.64371 -88.08167 36716 ft 456 kts 230°
2026-05-05 06:34 40.59908 -88.14113 36712 ft 456 kts 230°
2026-05-05 06:34 40.55478 -88.20000 36719 ft 455 kts 230°
2026-05-05 06:35 40.51024 -88.25901 36727 ft 456 kts 230°
2026-05-05 06:35 40.46586 -88.31772 36737 ft 456 kts 230°
2026-05-05 06:36 40.42115 -88.37675 36729 ft 457 kts 230°
2026-05-05 06:36 40.37637 -88.43575 36723 ft 456 kts 230°
2026-05-05 06:37 40.33166 -88.49455 36723 ft 456 kts 230°
2026-05-05 06:37 40.28716 -88.55293 36728 ft 455 kts 230°
2026-05-05 06:38 40.24218 -88.61184 36735 ft 456 kts 230°
2026-05-05 06:38 40.19747 -88.67027 36731 ft 457 kts 229°
2026-05-05 06:39 40.15246 -88.72900 36722 ft 458 kts 229°
2026-05-05 06:39 40.10766 -88.78733 36738 ft 458 kts 229°
2026-05-05 06:40 40.06238 -88.84618 36746 ft 457 kts 229°
2026-05-05 06:40 40.01769 -88.90414 36746 ft 457 kts 229°
2026-05-05 06:41 39.97256 -88.96252 36757 ft 457 kts 229°
2026-05-05 06:41 39.92742 -89.02084 36769 ft 458 kts 229°
2026-05-05 06:42 39.88245 -89.07881 36757 ft 457 kts 229°
2026-05-05 06:42 39.83735 -89.13686 36761 ft 455 kts 229°
2026-05-05 06:43 39.79263 -89.19429 36743 ft 455 kts 229°
2026-05-05 06:43 39.74742 -89.25222 36744 ft 456 kts 229°
2026-05-05 06:44 39.70225 -89.30999 36749 ft 456 kts 229°
2026-05-05 06:44 39.65737 -89.36729 36749 ft 455 kts 229°
2026-05-05 06:45 39.61224 -89.42481 36755 ft 455 kts 229°
2026-05-05 06:45 39.56722 -89.48206 36750 ft 455 kts 230°
2026-05-05 06:46 39.52203 -89.53942 36746 ft 455 kts 230°
2026-05-05 06:46 39.47687 -89.59665 36739 ft 454 kts 230°
2026-05-05 06:47 39.43195 -89.65343 36744 ft 455 kts 229°
2026-05-05 06:47 39.38670 -89.71054 36757 ft 455 kts 229°
2026-05-05 06:48 39.34192 -89.76695 36764 ft 453 kts 229°
2026-05-05 06:48 39.29657 -89.82398 36781 ft 453 kts 230°
2026-05-05 06:49 39.25171 -89.88027 36758 ft 453 kts 229°
2026-05-05 06:49 39.20670 -89.93666 36771 ft 452 kts 230°
2026-05-05 06:50 39.16160 -89.99303 36763 ft 451 kts 230°
2026-05-05 06:50 39.11660 -90.04920 36768 ft 451 kts 230°
2026-05-05 06:51 39.07156 -90.10529 36781 ft 452 kts 230°
2026-05-05 06:51 39.02660 -90.16117 36784 ft 453 kts 230°
2026-05-05 06:52 38.98136 -90.21730 36776 ft 451 kts 230°
2026-05-05 06:52 38.93645 -90.27294 36768 ft 451 kts 230°
2026-05-05 06:53 38.89113 -90.32898 36772 ft 451 kts 230°
2026-05-05 06:53 38.84604 -90.38457 36765 ft 452 kts 230°
2026-05-05 06:54 38.80097 -90.44009 36761 ft 452 kts 230°
2026-05-05 06:54 38.75563 -90.49584 36765 ft 451 kts 230°
2026-05-05 06:55 38.71034 -90.55144 36759 ft 450 kts 230°
2026-05-05 06:55 38.66555 -90.60628 36762 ft 449 kts 230°
2026-05-05 06:56 38.62014 -90.66179 36767 ft 450 kts 229°
2026-05-05 06:56 38.57500 -90.71688 36771 ft 452 kts 230°
2026-05-05 06:57 38.52952 -90.77228 36775 ft 451 kts 230°
2026-05-05 06:57 38.48418 -90.82743 36766 ft 451 kts 230°
2026-05-05 06:58 38.43917 -90.88206 36773 ft 450 kts 230°
2026-05-05 06:58 38.39362 -90.93722 36776 ft 452 kts 230°
2026-05-05 06:59 38.34813 -90.99223 36785 ft 451 kts 230°
2026-05-05 06:59 38.30278 -91.04697 36792 ft 452 kts 230°
2026-05-05 07:00 38.25714 -91.10197 36808 ft 452 kts 230°
2026-05-05 07:00 38.21153 -91.15681 36808 ft 451 kts 230°
2026-05-05 07:01 38.16619 -91.21126 36805 ft 452 kts 230°
2026-05-05 07:01 38.12063 -91.26584 36800 ft 452 kts 231°
2026-05-05 07:02 38.07497 -91.32046 36801 ft 452 kts 231°
2026-05-05 07:02 38.02931 -91.37497 36793 ft 452 kts 231°
2026-05-05 07:03 37.98339 -91.42970 36801 ft 454 kts 231°
2026-05-05 07:03 37.93752 -91.48428 36806 ft 453 kts 231°
2026-05-05 07:04 37.89182 -91.53858 36798 ft 452 kts 231°
2026-05-05 07:04 37.84582 -91.59309 36796 ft 452 kts 231°
2026-05-05 07:05 37.80017 -91.64710 36791 ft 453 kts 231°
2026-05-05 07:05 37.75390 -91.70175 36803 ft 454 kts 231°
2026-05-05 07:06 37.70778 -91.75615 36813 ft 454 kts 231°
2026-05-05 07:06 37.66214 -91.80988 36810 ft 453 kts 231°
2026-05-05 07:07 37.61592 -91.86418 36804 ft 453 kts 231°
2026-05-05 07:07 37.56996 -91.91811 36811 ft 454 kts 231°
2026-05-05 07:08 37.52396 -91.97195 36818 ft 452 kts 231°
2026-05-05 07:08 37.47733 -92.02529 36818 ft 454 kts 230°
2026-05-05 07:09 37.43000 -92.07807 36799 ft 455 kts 230°
2026-05-05 07:09 37.38275 -92.13067 36815 ft 454 kts 230°
2026-05-05 07:10 37.33555 -92.18313 36824 ft 454 kts 230°
2026-05-05 07:10 37.28838 -92.23546 36801 ft 453 kts 230°
2026-05-05 07:11 37.24122 -92.28770 36797 ft 452 kts 230°
2026-05-05 07:11 37.19410 -92.33978 36814 ft 454 kts 230°
2026-05-05 07:12 37.14683 -92.39192 36830 ft 453 kts 230°
2026-05-05 07:12 37.09976 -92.44379 36854 ft 452 kts 230°
2026-05-05 07:13 37.05250 -92.49577 36812 ft 452 kts 231°
2026-05-05 07:13 37.00534 -92.54754 36819 ft 449 kts 231°
2026-05-05 07:14 36.95841 -92.59903 36838 ft 450 kts 231°
2026-05-05 07:14 36.91173 -92.65010 36802 ft 451 kts 230°
2026-05-05 07:15 36.86412 -92.70207 36818 ft 454 kts 230°
2026-05-05 07:15 36.81674 -92.75374 36830 ft 451 kts 231°
2026-05-05 07:16 36.76983 -92.80482 36827 ft 449 kts 231°
2026-05-05 07:16 36.72268 -92.85606 36829 ft 451 kts 231°
2026-05-05 07:17 36.67564 -92.90707 37098 ft 450 kts 232°
2026-05-05 07:17 36.65178 -92.93301 36778 ft 457 kts 231°
2026-05-05 07:17 36.62818 -92.95847 36848 ft 448 kts 232°
2026-05-05 07:18 36.58117 -93.00935 36817 ft 448 kts 232°
2026-05-05 07:18 36.53401 -93.06020 36846 ft 450 kts 232°
2026-05-05 07:19 36.48664 -93.11128 36851 ft 451 kts 232°
2026-05-05 07:19 36.43933 -93.16219 36865 ft 449 kts 232°
2026-05-05 07:20 36.39256 -93.21241 36877 ft 446 kts 232°
2026-05-05 07:20 36.34532 -93.26307 36873 ft 448 kts 233°
2026-05-05 07:21 36.29822 -93.31350 36880 ft 447 kts 233°
2026-05-05 07:21 36.25121 -93.36374 36896 ft 446 kts 233°
2026-05-05 07:22 36.20441 -93.41369 36856 ft 446 kts 233°
2026-05-05 07:22 36.15741 -93.46375 36883 ft 446 kts 233°
2026-05-05 07:23 36.11077 -93.51333 36895 ft 446 kts 233°
2026-05-05 07:23 36.06370 -93.56332 36877 ft 444 kts 233°
2026-05-05 07:24 36.01663 -93.61322 36893 ft 444 kts 233°
2026-05-05 07:24 35.97004 -93.66250 36892 ft 442 kts 233°
2026-05-05 07:25 35.92325 -93.71197 36889 ft 445 kts 233°
2026-05-05 07:25 35.87638 -93.76136 36875 ft 445 kts 234°
2026-05-05 07:26 35.82951 -93.81077 36886 ft 443 kts 234°
2026-05-05 07:26 35.78267 -93.85999 36888 ft 444 kts 234°
2026-05-05 07:27 35.73547 -93.90957 36890 ft 443 kts 234°
2026-05-05 07:27 35.68863 -93.95868 36882 ft 441 kts 234°
2026-05-05 07:28 35.64206 -94.00738 36871 ft 442 kts 234°
2026-05-05 07:28 35.59535 -94.05621 36867 ft 441 kts 234°
2026-05-05 07:29 35.54899 -94.10453 36867 ft 440 kts 234°
2026-05-05 07:29 35.50249 -94.15296 36861 ft 439 kts 235°
2026-05-05 07:30 35.45568 -94.20165 36869 ft 442 kts 235°
2026-05-05 07:30 35.38602 -94.27402 36876 ft 433 kts 236°
2026-05-05 07:31 35.34130 -94.32271 36882 ft 432 kts 236°
2026-05-05 07:31 35.29634 -94.37156 36882 ft 433 kts 237°
2026-05-05 07:32 35.25114 -94.42059 36883 ft 433 kts 236°
2026-05-05 07:32 35.20649 -94.46890 36891 ft 428 kts 237°
2026-05-05 07:33 35.16177 -94.51725 36891 ft 433 kts 237°
2026-05-05 07:33 35.11667 -94.56596 36891 ft 433 kts 237°
2026-05-05 07:34 35.07176 -94.61433 36894 ft 432 kts 237°
2026-05-05 07:34 35.02657 -94.66299 36905 ft 431 kts 236°
2026-05-05 07:35 34.98171 -94.71118 36912 ft 430 kts 236°
2026-05-05 07:35 34.93681 -94.75938 36918 ft 435 kts 237°
2026-05-05 07:36 34.89146 -94.80792 36897 ft 433 kts 237°
2026-05-05 07:36 34.84634 -94.85620 36884 ft 429 kts 237°
2026-05-05 07:37 34.80104 -94.90364 36893 ft 431 kts 236°
2026-05-05 07:37 34.75510 -94.95063 36901 ft 433 kts 236°
2026-05-05 07:38 34.70894 -94.99777 36897 ft 432 kts 235°
2026-05-05 07:38 34.66292 -95.04468 36901 ft 430 kts 236°
2026-05-05 07:39 34.64019 -95.06780 36322 ft 432 kts 235°
2026-05-05 07:39 34.61716 -95.09135 35692 ft 436 kts 234°
2026-05-05 07:39 34.59415 -95.11449 35303 ft 424 kts 235°
2026-05-05 07:39 34.57143 -95.13772 33895 ft 431 kts 234°
2026-05-05 07:40 34.54869 -95.16086 32727 ft 434 kts 233°
2026-05-05 07:40 34.52552 -95.18444 31324 ft 445 kts 231°
2026-05-05 07:40 34.50161 -95.20881 29755 ft 457 kts 230°
2026-05-05 07:40 34.47731 -95.23334 28290 ft 465 kts 228°
2026-05-05 07:41 34.45236 -95.25851 26824 ft 470 kts 227°
2026-05-05 07:41 34.42768 -95.28331 25954 ft 462 kts 227°
2026-05-05 07:41 34.40333 -95.30778 25432 ft 449 kts 227°
2026-05-05 07:41 34.37950 -95.33173 25156 ft 431 kts 227°
2026-05-05 07:42 34.35707 -95.35423 25186 ft 408 kts 228°
2026-05-05 07:42 34.33566 -95.37579 24732 ft 399 kts 228°
2026-05-05 07:42 34.31443 -95.39720 23981 ft 399 kts 227°
2026-05-05 07:42 34.29311 -95.41865 23878 ft 405 kts 227°
2026-05-05 07:43 34.27121 -95.44064 23958 ft 407 kts 227°
2026-05-05 07:43 34.24966 -95.46218 23845 ft 401 kts 227°
2026-05-05 07:43 34.22829 -95.48358 23898 ft 400 kts 228°
2026-05-05 07:43 34.20692 -95.50498 23904 ft 399 kts 227°
2026-05-05 07:44 34.18543 -95.52646 23887 ft 397 kts 227°
2026-05-05 07:44 34.16421 -95.54768 23907 ft 397 kts 227°
2026-05-05 07:44 34.14285 -95.56897 23914 ft 399 kts 227°
2026-05-05 07:44 34.12160 -95.59018 23900 ft 399 kts 228°
2026-05-05 07:45 34.10019 -95.61153 23911 ft 397 kts 227°
2026-05-05 07:45 34.07905 -95.63254 23907 ft 396 kts 227°
2026-05-05 07:45 34.05772 -95.65376 23916 ft 396 kts 227°
2026-05-05 07:45 34.03640 -95.67493 23918 ft 400 kts 227°
2026-05-05 07:46 34.01495 -95.69624 23782 ft 402 kts 227°
2026-05-05 07:46 33.99310 -95.71790 23352 ft 399 kts 227°
2026-05-05 07:46 33.97190 -95.73892 22973 ft 396 kts 227°
2026-05-05 07:46 33.95096 -95.75977 22607 ft 392 kts 227°
2026-05-05 07:47 33.93015 -95.78062 22231 ft 389 kts 227°
2026-05-05 07:47 33.90933 -95.80147 21858 ft 387 kts 227°
2026-05-05 07:47 33.88866 -95.82214 21481 ft 385 kts 227°
2026-05-05 07:47 33.86818 -95.84261 21040 ft 385 kts 226°
2026-05-05 07:48 33.84757 -95.86321 20514 ft 381 kts 226°
2026-05-05 07:48 33.82753 -95.88317 20012 ft 377 kts 226°
2026-05-05 07:48 33.80728 -95.90319 19512 ft 373 kts 226°
2026-05-05 07:48 33.78723 -95.92301 19007 ft 373 kts 226°
2026-05-05 07:49 33.76735 -95.94262 18509 ft 370 kts 225°
2026-05-05 07:49 33.74757 -95.96213 18011 ft 366 kts 225°
2026-05-05 07:49 33.72810 -95.98132 17513 ft 365 kts 225°
2026-05-05 07:49 33.70858 -96.00055 17021 ft 362 kts 225°
2026-05-05 07:50 33.68902 -96.01981 16518 ft 359 kts 225°
2026-05-05 07:50 33.66988 -96.03864 16023 ft 360 kts 225°
2026-05-05 07:50 33.65059 -96.05762 15741 ft 350 kts 225°
2026-05-05 07:50 33.63239 -96.07544 15777 ft 331 kts 225°
2026-05-05 07:51 33.61491 -96.09259 15752 ft 314 kts 226°
2026-05-05 07:51 33.59833 -96.10889 15542 ft 306 kts 226°
2026-05-05 07:51 33.58192 -96.12504 15133 ft 305 kts 225°
2026-05-05 07:51 33.56552 -96.14114 14741 ft 303 kts 225°
2026-05-05 07:52 33.54933 -96.15700 14343 ft 302 kts 225°
2026-05-05 07:52 33.53313 -96.17292 13928 ft 301 kts 225°
2026-05-05 07:52 33.51685 -96.18884 13552 ft 299 kts 225°
2026-05-05 07:52 33.50078 -96.20456 13189 ft 297 kts 225°
2026-05-05 07:53 33.48500 -96.22001 12814 ft 296 kts 225°
2026-05-05 07:53 33.46913 -96.23553 12454 ft 294 kts 225°
2026-05-05 07:53 33.45322 -96.25111 12097 ft 292 kts 225°
2026-05-05 07:53 33.43892 -96.26765 11731 ft 286 kts 234°
2026-05-05 07:54 33.42604 -96.28566 11371 ft 284 kts 234°
2026-05-05 07:54 33.41330 -96.30329 11112 ft 280 kts 233°
2026-05-05 07:54 33.40057 -96.32086 11140 ft 273 kts 233°
2026-05-05 07:54 33.38847 -96.33751 11113 ft 262 kts 234°
2026-05-05 07:55 33.37654 -96.35394 11034 ft 258 kts 234°
2026-05-05 07:55 33.36470 -96.37028 10689 ft 259 kts 233°
2026-05-05 07:55 33.35292 -96.38650 10393 ft 257 kts 233°
2026-05-05 07:55 33.34121 -96.40260 10100 ft 256 kts 233°
2026-05-05 07:56 33.32979 -96.41851 9817 ft 253 kts 237°
2026-05-05 07:56 33.32237 -96.43728 9490 ft 248 kts 255°
2026-05-05 07:56 33.31702 -96.45678 9188 ft 247 kts 253°
2026-05-05 07:56 33.31165 -96.47598 8897 ft 246 kts 253°
2026-05-05 07:57 33.30623 -96.49530 8625 ft 244 kts 253°
2026-05-05 07:57 33.30086 -96.51444 8377 ft 241 kts 253°
2026-05-05 07:57 33.29547 -96.53361 8036 ft 243 kts 253°
2026-05-05 07:57 33.29014 -96.55260 7796 ft 240 kts 252°
2026-05-05 07:58 33.28656 -96.57179 7488 ft 239 kts 266°
2026-05-05 07:58 33.28582 -96.59167 7171 ft 239 kts 266°
2026-05-05 07:58 33.28495 -96.61134 6939 ft 236 kts 266°
2026-05-05 07:58 33.28408 -96.63078 6648 ft 236 kts 266°
2026-05-05 07:59 33.28318 -96.65048 6338 ft 236 kts 265°
2026-05-05 07:59 33.28229 -96.67005 6126 ft 234 kts 265°
2026-05-05 07:59 33.28140 -96.68932 6143 ft 232 kts 265°
2026-05-05 07:59 33.28051 -96.70853 6130 ft 235 kts 265°
2026-05-05 08:00 33.27959 -96.72824 6131 ft 235 kts 265°
2026-05-05 08:00 33.27868 -96.74772 6133 ft 235 kts 265°
2026-05-05 08:00 33.27776 -96.76720 6130 ft 235 kts 265°
2026-05-05 08:00 33.27685 -96.78667 6118 ft 236 kts 265°
2026-05-05 08:01 33.27592 -96.80612 6120 ft 234 kts 265°
2026-05-05 08:01 33.27500 -96.82560 6125 ft 233 kts 265°
2026-05-05 08:01 33.27408 -96.84485 6124 ft 235 kts 265°
2026-05-05 08:01 33.26971 -96.86316 6112 ft 233 kts 243°
2026-05-05 08:02 33.26235 -96.88049 5985 ft 237 kts 246°
2026-05-05 08:02 33.25553 -96.89853 5735 ft 237 kts 246°
2026-05-05 08:02 33.24892 -96.91631 5491 ft 234 kts 246°
2026-05-05 08:02 33.24238 -96.93414 5247 ft 233 kts 245°
2026-05-05 08:03 33.23591 -96.95175 5006 ft 233 kts 245°
2026-05-05 08:03 33.22945 -96.96940 4757 ft 230 kts 245°
2026-05-05 08:03 33.22305 -96.98684 4396 ft 230 kts 244°
2026-05-05 08:03 33.21664 -97.00429 4136 ft 230 kts 244°
2026-05-05 08:04 33.21031 -97.02156 4127 ft 218 kts 244°
2026-05-05 08:04 33.20434 -97.03758 4106 ft 208 kts 239°
2026-05-05 08:04 33.19448 -97.04965 4116 ft 203 kts 207°
2026-05-05 08:04 33.18076 -97.05290 4149 ft 209 kts 184°
2026-05-05 08:05 33.16619 -97.05314 4102 ft 206 kts 185°
2026-05-05 08:05 33.15200 -97.05334 3941 ft 204 kts 184°
2026-05-05 08:05 33.13774 -97.05347 3712 ft 204 kts 184°
2026-05-05 08:05 33.12359 -97.05356 3523 ft 203 kts 184°
2026-05-05 08:06 33.10943 -97.05365 3317 ft 202 kts 184°
2026-05-05 08:06 33.09561 -97.05371 3230 ft 194 kts 183°
2026-05-05 08:06 33.08234 -97.05377 3203 ft 182 kts 184°
2026-05-05 08:06 33.07010 -97.05384 3111 ft 175 kts 183°
2026-05-05 08:07 33.05801 -97.05391 2975 ft 172 kts 183°
2026-05-05 08:07 33.04625 -97.05399 2757 ft 168 kts 183°
2026-05-05 08:07 33.03459 -97.05403 2545 ft 164 kts 182°
2026-05-05 08:07 33.02344 -97.05409 2519 ft 157 kts 184°
2026-05-05 08:08 33.01199 -97.05420 2458 ft 169 kts 183°
2026-05-05 08:08 33.00042 -97.05422 2241 ft 163 kts 184°
2026-05-05 08:08 32.98960 -97.05428 2039 ft 146 kts 184°
2026-05-05 08:08 32.98008 -97.05431 1834 ft 132 kts 184°
2026-05-05 08:09 32.97120 -97.05439 1656 ft 127 kts 183°
2026-05-05 08:09 32.96804 -97.05443 1614 ft 128 kts 184°